M I D A S
Marine Information and Data Acquisition System
Tripno 1466 of the Zeeleeuw from 2008-04-25 06:40:08 to 2008-04-25 13:13:30
Back to CruiseResearch ActivitiesStationsMapUnderway DataData graphs

EquipmentUnitsComment
TimeDGPSUTC
LatitudeDGPSDM.mWGS84
LongitudeDGPSDM.mWGS84
TemperatureSBE03/SBE38deg celciusITS90
ConductivitySBE21S/mITS90
SalinitySBE21 Practical Salinity Units
ChlorophylAChelsea fluorimeterg/lCalibrated in Aceton
Missing or incorrect values are displayed as -999
Sea surface data collected by the RV Zeeleeuw from 2008-04-25 06:36:28 to 2008-04-25 13:23:19
                                                                                    Next 1000 lines
Time Latitude Longitude Temperature Conductivity Salinity ChlorophylA
2008-04-25 06:36:39 51°13.664 2°55.95 17.2975 0.068964 0.357061 -1.801521
2008-04-25 06:36:43 51°13.664 2°55.947 17.4647 0.068964 0.357061 -1.801521
2008-04-25 06:36:47 51°13.665 2°55.944 17.4854 0.068964 0.357061 -1.801521
2008-04-25 06:36:53 51°13.667 2°55.938 17.4651 0.068964 0.357066 -1.801521
2008-04-25 06:36:58 51°13.668 2°55.932 17.4781 0.068964 0.357066 -1.801521
2008-04-25 06:37:03 51°13.669 2°55.926 17.4819 0.068964 0.357066 -1.801521
2008-04-25 06:37:09 51°13.671 2°55.919 17.4574 0.068964 0.357072 -1.801521
2008-04-25 06:37:13 51°13.673 2°55.913 17.4855 0.068964 0.357072 -1.801521
2008-04-25 06:37:18 51°13.674 2°55.906 17.5088 0.068964 0.357066 -1.801521
2008-04-25 06:37:23 51°13.676 2°55.899 17.505 0.068964 0.357066 -1.766697
2008-04-25 06:37:29 51°13.678 2°55.889 17.505 0.068964 0.357072 -1.801521
2008-04-25 06:37:33 51°13.68 2°55.883 17.5122 0.068964 0.357072 -1.801521
2008-04-25 06:37:38 51°13.681 2°55.875 17.5341 0.068964 0.357072 -1.801521
2008-04-25 06:37:43 51°13.683 2°55.866 17.5406 0.068964 0.357072 -1.801521
2008-04-25 06:37:48 51°13.684 2°55.858 17.538 0.068964 0.357078 -1.801521
2008-04-25 06:37:53 51°13.686 2°55.849 17.5312 0.068964 0.357078 -1.801521
2008-04-25 06:37:58 51°13.687 2°55.841 17.5228 0.068964 0.357084 -1.766697
2008-04-25 06:38:03 51°13.689 2°55.833 17.5148 0.068964 0.357084 -1.801521
2008-04-25 06:38:08 51°13.689 2°55.825 17.4998 0.068964 0.357084 -1.766697
2008-04-25 06:38:14 51°13.691 2°55.815 17.4907 0.068964 0.357084 -1.766697
2008-04-25 06:38:19 51°13.692 2°55.808 17.4924 0.068964 0.357084 -1.766697
2008-04-25 06:38:23 51°13.692 2°55.802 17.4922 0.068964 0.357084 -1.801521
2008-04-25 06:38:28 51°13.693 2°55.795 17.4954 0.068964 0.357084 -1.801521
2008-04-25 06:38:33 51°13.693 2°55.788 17.497 0.068964 0.357084 -1.766697
2008-04-25 06:38:38 51°13.694 2°55.781 17.5023 0.068964 0.357084 -1.766697
2008-04-25 06:38:43 51°13.694 2°55.774 17.495 0.068964 0.357084 -1.766697
2008-04-25 06:38:49 51°13.695 2°55.767 17.4939 0.068964 0.35709 -1.801521
2008-04-25 06:38:53 51°13.695 2°55.762 17.486 0.068964 0.35709 -1.801521
2008-04-25 06:38:58 51°13.695 2°55.757 17.4773 0.068964 0.357096 -1.801521
2008-04-25 06:39:04 51°13.695 2°55.751 17.4708 0.068964 0.357096 -1.801521
2008-04-25 06:39:07 51°13.695 2°55.748 17.4697 0.068964 0.357096 -1.801521
2008-04-25 06:39:13 51°13.695 2°55.743 17.4647 0.068964 0.357096 -1.801521
2008-04-25 06:39:19 51°13.695 2°55.738 17.4695 0.068964 0.357102 -1.801521
2008-04-25 06:39:23 51°13.695 2°55.736 17.4765 0.068964 0.357102 -1.801521
2008-04-25 06:39:28 51°13.695 2°55.732 17.4844 0.068964 0.357102 -1.801521
2008-04-25 06:39:32 51°13.695 2°55.73 17.4857 0.068964 0.357107 -1.801521
2008-04-25 06:39:39 51°13.695 2°55.727 17.4922 0.068964 0.357107 -1.801521
2008-04-25 06:39:43 51°13.694 2°55.725 17.4991 0.068964 0.357107 -1.801521
2008-04-25 06:39:48 51°13.694 2°55.723 17.498 0.068964 0.357113 -1.801521
2008-04-25 06:39:52 51°13.694 2°55.722 17.5006 0.068964 0.357113 -1.801521
2008-04-25 06:39:58 51°13.694 2°55.721 17.4999 0.068964 0.357113 -1.801521
2008-04-25 06:40:03 51°13.695 2°55.72 17.5034 0.068964 0.357113 -1.801521
2008-04-25 06:40:08 51°13.695 2°55.719 17.5054 0.068964 0.357113 -1.801521
2008-04-25 06:40:13 51°13.695 2°55.719 17.51 0.068964 0.357113 -1.801521
2008-04-25 06:40:17 51°13.695 2°55.719 17.5121 0.068964 0.357113 -1.801521
2008-04-25 06:40:23 51°13.696 2°55.719 17.5123 0.068964 0.357119 -1.766697
2008-04-25 06:40:29 51°13.698 2°55.72 17.5125 0.068964 0.357119 -1.766697
2008-04-25 06:40:33 51°13.698 2°55.721 17.5125 0.068964 0.357119 -1.801521
2008-04-25 06:40:39 51°13.7 2°55.722 17.5157 0.068964 0.357119 -1.801521
2008-04-25 06:40:43 51°13.702 2°55.722 17.54 0.068964 0.357119 -1.801521
2008-04-25 06:40:48 51°13.704 2°55.723 17.5746 0.068964 0.357125 -1.801521
2008-04-25 06:40:53 51°13.707 2°55.724 17.6131 0.068964 0.357125 -1.801521
2008-04-25 06:40:58 51°13.71 2°55.724 17.6409 0.068964 0.357125 -1.766697
2008-04-25 06:41:03 51°13.713 2°55.723 17.6465 0.068964 0.357131 -1.801521
2008-04-25 06:41:07 51°13.716 2°55.723 17.6351 0.068964 0.357137 -1.801521
2008-04-25 06:41:14 51°13.722 2°55.72 17.6108 0.068964 0.357137 -1.801521
2008-04-25 06:41:18 51°13.726 2°55.718 17.6137 0.068964 0.357143 -1.801521
2008-04-25 06:41:23 51°13.732 2°55.715 17.6288 0.068964 0.357137 -1.766697
2008-04-25 06:41:27 51°13.737 2°55.712 17.6248 0.068964 0.357137 -1.801521
2008-04-25 06:41:33 51°13.744 2°55.706 17.609 0.068964 0.357131 -1.801521
2008-04-25 06:41:38 51°13.751 2°55.701 17.5788 0.068964 0.357125 -1.766697
2008-04-25 06:41:43 51°13.759 2°55.696 17.5464 0.068964 0.357125 -1.766697
2008-04-25 06:41:48 51°13.766 2°55.69 17.508 0.068964 0.357125 -1.766697
2008-04-25 06:41:53 51°13.774 2°55.684 17.4998 0.068964 0.357119 -1.801521
2008-04-25 06:41:59 51°13.784 2°55.676 17.4901 0.068964 0.357125 -1.801521
2008-04-25 06:42:03 51°13.791 2°55.671 17.487 0.068964 0.357125 -1.801521
2008-04-25 06:42:08 51°13.799 2°55.665 17.4567 0.068964 0.357131 -1.801521
2008-04-25 06:42:13 51°13.808 2°55.658 17.4467 0.068964 0.357131 -1.801521
2008-04-25 06:42:18 51°13.816 2°55.652 17.4545 0.068964 0.357137 -1.801521
2008-04-25 06:42:23 51°13.825 2°55.646 17.4751 0.068964 0.357137 -1.801521
2008-04-25 06:42:27 51°13.832 2°55.641 17.4802 0.068964 0.357143 -1.801521
2008-04-25 06:42:32 51°13.84 2°55.635 17.4882 0.068964 0.357143 -1.801521
2008-04-25 06:42:38 51°13.851 2°55.627 17.4933 0.068964 0.357143 -1.801521
2008-04-25 06:42:43 51°13.86 2°55.621 17.5013 0.068964 0.357143 -1.801521
2008-04-25 06:42:48 51°13.868 2°55.614 17.5099 0.068964 0.357148 -1.766697
2008-04-25 06:42:52 51°13.875 2°55.609 17.5161 0.068964 0.357148 -1.801521
2008-04-25 06:42:58 51°13.886 2°55.602 17.514 0.068964 0.357154 -1.801521
2008-04-25 06:43:03 51°13.894 2°55.595 17.5146 0.068964 0.35716 -1.801521
2008-04-25 06:43:08 51°13.902 2°55.59 17.5186 0.068964 0.35716 -1.801521
2008-04-25 06:43:13 51°13.911 2°55.584 17.52 0.068964 0.35716 -1.801521
2008-04-25 06:43:18 51°13.919 2°55.578 17.5236 0.068964 0.357166 -1.801521
2008-04-25 06:43:23 51°13.927 2°55.572 17.5486 0.068964 0.357166 -1.801521
2008-04-25 06:43:28 51°13.935 2°55.566 17.5644 0.068964 0.357172 -1.801521
2008-04-25 06:43:33 51°13.944 2°55.56 17.5719 0.068964 0.357172 -1.801521
2008-04-25 06:43:38 51°13.952 2°55.553 17.5515 0.068964 0.357172 -1.801521
2008-04-25 06:43:43 51°13.96 2°55.548 17.5407 0.068964 0.357172 -1.801521
2008-04-25 06:43:47 51°13.966 2°55.543 17.5334 0.068964 0.357172 -1.801521
2008-04-25 06:43:53 51°13.976 2°55.536 17.5339 0.068964 0.357172 -1.766697
2008-04-25 06:43:58 51°13.984 2°55.53 17.5327 0.068964 0.357172 -1.801521
2008-04-25 06:44:04 51°13.994 2°55.523 17.5323 0.068964 0.357172 -1.801521
2008-04-25 06:44:08 51°14.001 2°55.519 17.5311 0.068964 0.357172 -1.801521
2008-04-25 06:44:14 51°14.011 2°55.512 17.5255 0.068964 0.357172 -1.801521
2008-04-25 06:44:18 51°14.018 2°55.507 17.5317 0.068964 0.357172 -1.801521
2008-04-25 06:44:23 51°14.026 2°55.502 17.5318 0.068964 0.357172 -1.801521
2008-04-25 06:44:29 51°14.036 2°55.495 17.5226 0.068964 0.357178 -1.801521
2008-04-25 06:44:33 51°14.042 2°55.491 17.5141 0.068964 0.357178 -1.801521
2008-04-25 06:44:38 51°14.051 2°55.485 17.5243 0.068964 0.357184 -1.801521
2008-04-25 06:44:43 51°14.059 2°55.479 17.5355 0.068964 0.357184 -1.801521
2008-04-25 06:44:48 51°14.067 2°55.473 17.5563 0.068964 0.357184 -1.801521
2008-04-25 06:44:53 51°14.075 2°55.467 17.5476 0.068964 0.357184 -1.801521
2008-04-25 06:44:58 51°14.083 2°55.462 17.5514 0.068964 0.357184 -1.766697
2008-04-25 06:45:03 51°14.092 2°55.456 17.5474 0.068964 0.357184 -1.766697
2008-04-25 06:45:08 51°14.1 2°55.449 17.5493 0.068964 0.35719 -1.801521
2008-04-25 06:45:13 51°14.109 2°55.442 17.55 0.068964 0.35719 -1.801521
2008-04-25 06:45:18 51°14.118 2°55.435 17.5447 0.068964 0.35719 -1.801521
2008-04-25 06:45:23 51°14.128 2°55.428 17.5469 0.068964 0.357184 -1.801521
2008-04-25 06:45:28 51°14.138 2°55.42 17.5449 0.068964 0.35719 -1.801521
2008-04-25 06:45:33 51°14.148 2°55.412 17.5373 0.068964 0.35719 -1.801521
2008-04-25 06:45:38 51°14.158 2°55.403 17.5362 0.068964 0.357195 -1.801521
2008-04-25 06:45:43 51°14.169 2°55.394 17.5429 0.068964 0.357195 -1.801521
2008-04-25 06:45:48 51°14.179 2°55.385 17.5864 0.068964 0.357195 -1.801521
2008-04-25 06:45:54 51°14.191 2°55.373 17.558 0.068964 0.357201 -1.801521
2008-04-25 06:45:58 51°14.199 2°55.365 17.5133 0.068964 0.357207 -1.801521
2008-04-25 06:46:03 51°14.209 2°55.354 17.516 0.068964 0.357201 -1.766697
2008-04-25 06:46:09 51°14.22 2°55.342 17.5291 0.068964 0.357207 -1.801521
2008-04-25 06:46:13 51°14.226 2°55.334 17.5602 0.068964 0.357207 -1.801521
2008-04-25 06:46:18 51°14.235 2°55.324 17.5655 0.068964 0.357207 -1.801521
2008-04-25 06:46:23 51°14.242 2°55.313 17.5652 0.068964 0.357207 -1.766697
2008-04-25 06:46:27 51°14.248 2°55.305 17.5501 0.068964 0.357213 -1.801521
2008-04-25 06:46:32 51°14.255 2°55.293 17.5522 0.068964 0.357219 -1.801521
2008-04-25 06:46:38 51°14.262 2°55.28 17.5653 0.068964 0.357219 -1.766697
2008-04-25 06:46:42 51°14.267 2°55.271 17.4954 0.068964 0.357219 -1.766697
2008-04-25 06:46:47 51°14.273 2°55.26 17.5294 0.068964 0.357213 -1.766697
2008-04-25 06:46:52 51°14.279 2°55.249 17.51 0.068964 0.357219 -1.801521
2008-04-25 06:46:57 51°14.285 2°55.237 17.5193 0.068964 0.357219 -1.801521
2008-04-25 06:47:02 51°14.29 2°55.226 17.5447 0.068964 0.357219 -1.801521
2008-04-25 06:47:07 51°14.296 2°55.215 17.5431 0.068964 0.357219 -1.801521
2008-04-25 06:47:13 51°14.303 2°55.202 17.5376 0.068964 0.357219 -1.801521
2008-04-25 06:47:17 51°14.307 2°55.193 17.5315 0.068964 0.357219 -1.801521
2008-04-25 06:47:22 51°14.313 2°55.182 17.5196 0.068964 0.357225 -1.801521
2008-04-25 06:47:28 51°14.319 2°55.168 17.5485 0.068964 0.357225 -1.801521
2008-04-25 06:47:33 51°14.324 2°55.157 17.4703 0.068964 0.357225 -1.801521
2008-04-25 06:47:38 51°14.329 2°55.146 17.513 0.068964 0.357225 -1.766697
2008-04-25 06:47:43 51°14.335 2°55.135 17.4938 0.068964 0.357225 -1.766697
2008-04-25 06:47:48 51°14.34 2°55.124 17.5141 0.068964 0.357231 -1.801521
2008-04-25 06:47:53 51°14.345 2°55.113 17.487 0.068964 0.357231 -1.801521
2008-04-25 06:47:58 51°14.351 2°55.102 17.503 0.068964 0.357236 -1.801521
2008-04-25 06:48:03 51°14.356 2°55.092 17.5232 0.068964 0.357236 -1.801521
2008-04-25 06:48:07 51°14.36 2°55.083 17.5288 0.068964 0.357236 -1.801521
2008-04-25 06:48:12 51°14.365 2°55.072 17.5317 0.068964 0.357236 -1.801521
2008-04-25 06:48:17 51°14.371 2°55.061 17.5338 0.068964 0.357242 -1.801521
2008-04-25 06:48:22 51°14.377 2°55.049 17.5224 0.068964 0.357248 -1.766697
2008-04-25 06:48:27 51°14.382 2°55.036 17.5047 0.068964 0.357248 -1.801521
2008-04-25 06:48:32 51°14.388 2°55.023 17.5234 0.068964 0.357254 -1.801521
2008-04-25 06:48:37 51°14.394 2°55.009 17.4623 0.068964 0.357248 -1.766697
2008-04-25 06:48:42 51°14.401 2°54.995 17.466 0.068964 0.357248 -1.766697
2008-04-25 06:48:47 51°14.408 2°54.98 17.4966 0.068964 0.357248 -1.801521
2008-04-25 06:48:51 51°14.414 2°54.969 17.4246 0.068964 0.357248 -1.801521
2008-04-25 06:48:57 51°14.424 2°54.951 17.3903 0.068964 0.357254 -1.766697
2008-04-25 06:49:02 51°14.432 2°54.936 17.3619 0.068964 0.357254 -1.801521
2008-04-25 06:49:07 51°14.442 2°54.923 17.3477 0.068964 0.357254 -1.801521
2008-04-25 06:49:11 51°14.449 2°54.912 17.4462 0.068964 0.357254 -1.801521
2008-04-25 06:49:16 51°14.46 2°54.9 17.4357 0.068964 0.35726 -1.801521
2008-04-25 06:49:21 51°14.47 2°54.887 17.4383 0.068964 0.357266 -1.801521
2008-04-25 06:49:26 51°14.481 2°54.874 17.3495 0.068964 0.357272 -1.801521
2008-04-25 06:49:31 51°14.492 2°54.863 17.4269 0.068964 0.357266 -1.801521
2008-04-25 06:49:36 51°14.504 2°54.852 17.4131 0.068964 0.357278 -1.801521
2008-04-25 06:49:40 51°14.513 2°54.842 17.4674 0.068964 0.357278 -1.801521
2008-04-25 06:49:46 51°14.527 2°54.828 17.4441 0.068964 0.357278 -1.801521
2008-04-25 06:49:51 51°14.54 2°54.816 17.4155 0.068964 0.357278 -1.801521
2008-04-25 06:49:55 51°14.55 2°54.806 17.3092 0.068964 0.357278 -1.801521
2008-04-25 06:50:01 51°14.565 2°54.791 17.3813 0.068964 0.357283 -1.766697
2008-04-25 06:50:06 51°14.578 2°54.779 17.3501 0.068964 0.357283 -1.801521
2008-04-25 06:50:10 51°14.589 2°54.768 17.3774 0.068964 0.357283 -1.801521
2008-04-25 06:50:15 51°14.602 2°54.756 17.3238 0.068964 0.357283 -1.801521
2008-04-25 06:50:20 51°14.616 2°54.744 17.3571 0.068964 0.357283 -1.801521
2008-04-25 06:50:25 51°14.63 2°54.732 17.3604 0.068964 0.357289 -1.801521
2008-04-25 06:50:30 51°14.645 2°54.72 17.3753 0.068964 0.357283 -1.801521
2008-04-25 06:50:35 51°14.659 2°54.708 17.3975 0.068964 0.357301 -1.801521
2008-04-25 06:50:39 51°14.671 2°54.698 17.2658 0.068964 0.357301 -1.801521
2008-04-25 06:50:45 51°14.688 2°54.683 17.2857 0.068964 0.357301 -1.766697
2008-04-25 06:50:49 51°14.7 2°54.672 17.3034 0.068964 0.357301 -1.801521
2008-04-25 06:50:55 51°14.717 2°54.658 17.3055 0.068964 0.357301 -1.801521
2008-04-25 06:50:59 51°14.729 2°54.648 17.3054 0.068964 0.357301 -1.801521
2008-04-25 06:51:05 51°14.747 2°54.633 17.2855 0.068964 0.357313 -1.766697
2008-04-25 06:51:10 51°14.762 2°54.618 17.2988 0.068964 0.357313 -1.766697
2008-04-25 06:51:15 51°14.776 2°54.605 17.2645 0.068964 0.357307 -1.801521
2008-04-25 06:51:20 51°14.791 2°54.59 17.285 0.068964 0.357307 -1.801521
2008-04-25 06:51:25 51°14.805 2°54.576 17.2805 0.068964 0.357307 -1.766697
2008-04-25 06:51:30 51°14.82 2°54.561 17.2309 0.068964 0.357313 -1.766697
2008-04-25 06:51:35 51°14.835 2°54.546 17.2956 0.068964 0.357319 -1.801521
2008-04-25 06:51:40 51°14.849 2°54.531 17.2881 0.068964 0.357319 -1.801521
2008-04-25 06:51:45 51°14.863 2°54.516 17.2765 0.068964 0.357319 -1.801521
2008-04-25 06:51:50 51°14.877 2°54.5 17.2766 0.068964 0.357324 -1.801521
2008-04-25 06:51:55 51°14.892 2°54.485 17.2143 0.068964 0.357324 -1.801521
2008-04-25 06:52:00 51°14.905 2°54.468 17.2755 0.068964 0.357313 -1.801521
2008-04-25 06:52:05 51°14.919 2°54.453 17.2423 0.068964 0.357324 -1.801521
2008-04-25 06:52:10 51°14.934 2°54.437 17.2421 0.068964 0.357324 -1.801521
2008-04-25 06:52:15 51°14.947 2°54.421 17.2887 0.068964 0.357319 -1.801521
2008-04-25 06:52:20 51°14.961 2°54.406 17.1328 0.068964 0.357324 -1.801521
2008-04-25 06:52:25 51°14.975 2°54.391 17.2231 0.068964 0.357324 -1.801521
2008-04-25 06:52:30 51°14.99 2°54.376 17.2504 0.068964 0.35733 -1.801521
2008-04-25 06:52:35 51°15.004 2°54.361 17.2253 0.068964 0.357336 -1.801521
2008-04-25 06:52:40 51°15.018 2°54.346 17.2484 0.068964 0.357336 -1.801521
2008-04-25 06:52:45 51°15.032 2°54.332 17.2699 0.068964 0.357342 -1.801521
2008-04-25 06:52:50 51°15.046 2°54.316 17.2781 0.068964 0.357342 -1.801521
2008-04-25 06:52:55 51°15.06 2°54.3 17.1911 0.068964 0.357348 -1.766697
2008-04-25 06:53:00 51°15.073 2°54.283 17.2091 0.068964 0.357342 -1.766697
2008-04-25 06:53:05 51°15.087 2°54.267 17.1803 0.068964 0.357342 -1.801521
2008-04-25 06:53:09 51°15.098 2°54.255 17.196 0.068964 0.357342 -1.801521
2008-04-25 06:53:15 51°15.116 2°54.238 17.1074 0.068964 0.357336 -1.801521
2008-04-25 06:53:20 51°15.131 2°54.227 17.1333 0.068964 0.357336 -1.801521
2008-04-25 06:53:25 51°15.146 2°54.217 17.0999 0.068964 0.357336 -1.766697
2008-04-25 06:53:30 51°15.162 2°54.209 17.1053 0.068964 0.357342 -1.801521
2008-04-25 06:53:35 51°15.178 2°54.204 17.1629 0.068964 0.357354 -1.801521
2008-04-25 06:53:40 51°15.195 2°54.201 17.1766 0.068964 0.357354 -1.801521
2008-04-25 06:53:45 51°15.211 2°54.198 17.2136 0.068964 0.35736 -1.801521
2008-04-25 06:53:50 51°15.227 2°54.195 17.2773 0.068964 0.357377 -1.801521
2008-04-25 06:53:55 51°15.243 2°54.189 17.2621 0.068964 0.357389 -1.801521
2008-04-25 06:54:00 51°15.259 2°54.182 17.2221 0.068964 0.357395 -1.801521
2008-04-25 06:54:05 51°15.275 2°54.174 17.2019 0.068964 0.357383 -1.801521
2008-04-25 06:54:10 51°15.291 2°54.166 17.185 0.068964 0.357383 -1.801521
2008-04-25 06:54:15 51°15.306 2°54.157 17.1921 0.068964 0.357377 -1.801521
2008-04-25 06:54:20 51°15.321 2°54.149 17.199 0.068964 0.357371 -1.766697
2008-04-25 06:54:25 51°15.336 2°54.139 17.2146 0.068964 0.357366 -1.801521
2008-04-25 06:54:30 51°15.352 2°54.129 17.141 0.068964 0.357377 -1.801521
2008-04-25 06:54:35 51°15.367 2°54.119 17.1853 0.068964 0.357377 -1.766697
2008-04-25 06:54:40 51°15.382 2°54.11 17.1745 0.068964 0.357377 -1.766697
2008-04-25 06:54:45 51°15.398 2°54.101 17.2105 0.068964 0.357383 -1.801521
2008-04-25 06:54:50 51°15.413 2°54.092 17.1815 0.068964 0.357395 -1.801521
2008-04-25 06:54:55 51°15.429 2°54.082 17.0844 0.068964 0.357401 -1.801521
2008-04-25 06:55:00 51°15.444 2°54.072 17.1547 0.068964 0.357401 -1.801521
2008-04-25 06:55:05 51°15.459 2°54.063 17.1614 0.068964 0.357401 -1.766697
2008-04-25 06:55:10 51°15.475 2°54.053 17.1453 0.068964 0.357401 -1.766697
2008-04-25 06:55:15 51°15.49 2°54.042 17.1693 0.068964 0.357401 -1.766697
2008-04-25 06:55:20 51°15.505 2°54.032 17.1515 0.068964 0.357401 -1.801521
2008-04-25 06:55:25 51°15.521 2°54.021 17.1779 0.068964 0.357395 -1.766697
2008-04-25 06:55:30 51°15.536 2°54.011 17.1988 0.068964 0.357395 -1.766697
2008-04-25 06:55:35 51°15.551 2°54 17.2082 0.068964 0.357401 -1.766697
2008-04-25 06:55:40 51°15.566 2°53.988 17.2 0.068964 0.357401 -1.766697
2008-04-25 06:55:45 51°15.58 2°53.976 17.1737 0.068964 0.357407 -1.801521
2008-04-25 06:55:50 51°15.595 2°53.963 17.1338 0.068964 0.357401 -1.801521
2008-04-25 06:55:55 51°15.61 2°53.95 17.181 0.068964 0.357407 -1.801521
2008-04-25 06:56:00 51°15.624 2°53.937 17.1412 0.068964 0.357401 -1.801521
2008-04-25 06:56:05 51°15.639 2°53.924 17.1807 0.068964 0.357413 -1.801521
2008-04-25 06:56:10 51°15.653 2°53.911 17.1599 0.068964 0.357413 -1.801521
2008-04-25 06:56:15 51°15.667 2°53.897 17.1529 0.068964 0.357413 -1.801521
2008-04-25 06:56:20 51°15.682 2°53.883 17.1701 0.068964 0.357418 -1.801521
2008-04-25 06:56:25 51°15.696 2°53.87 17.1451 0.068964 0.357418 -1.801521
2008-04-25 06:56:30 51°15.71 2°53.856 17.1297 0.068964 0.357413 -1.801521
2008-04-25 06:56:35 51°15.725 2°53.843 17.1298 0.068964 0.357418 -1.801521
2008-04-25 06:56:40 51°15.739 2°53.829 17.0973 0.068964 0.357418 -1.801521
2008-04-25 06:56:45 51°15.754 2°53.816 17.1531 0.068964 0.357407 -1.766697
2008-04-25 06:56:50 51°15.768 2°53.803 17.1223 0.068964 0.357413 -1.766697
2008-04-25 06:56:55 51°15.783 2°53.791 17.1226 0.068964 0.357407 -1.801521
2008-04-25 06:57:00 51°15.798 2°53.778 17.1511 0.068964 0.357413 -1.801521
2008-04-25 06:57:05 51°15.813 2°53.765 17.1324 0.068964 0.357418 -1.766697
2008-04-25 06:57:10 51°15.827 2°53.752 17.117 0.068964 0.357418 -1.766697
2008-04-25 06:57:15 51°15.842 2°53.739 17.1512 0.068964 0.357418 -1.801521
2008-04-25 06:57:20 51°15.856 2°53.724 17.1036 0.068964 0.35743 -1.766697
2008-04-25 06:57:25 51°15.871 2°53.711 17.1422 0.068964 0.357424 -1.801521
2008-04-25 06:57:29 51°15.882 2°53.7 17.1295 0.068964 0.357424 -1.801521
2008-04-25 06:57:35 51°15.9 2°53.684 17.1294 0.068964 0.357424 -1.801521
2008-04-25 06:57:40 51°15.915 2°53.671 17.1393 0.068964 0.357424 -1.801521
2008-04-25 06:57:45 51°15.929 2°53.658 17.1058 0.068964 0.35743 -1.801521
2008-04-25 06:57:50 51°15.944 2°53.645 17.1637 0.068964 0.35743 -1.801521
2008-04-25 06:57:55 51°15.959 2°53.632 17.0867 0.068964 0.357436 -1.801521
2008-04-25 06:58:00 51°15.974 2°53.619 17.1586 0.068964 0.357436 -1.801521
2008-04-25 06:58:05 51°15.989 2°53.606 17.1605 0.068964 0.357442 -1.801521
2008-04-25 06:58:10 51°16.004 2°53.593 17.1266 0.068964 0.357442 -1.801521
2008-04-25 06:58:15 51°16.019 2°53.58 17.1591 0.068964 0.357442 -1.801521
2008-04-25 06:58:20 51°16.033 2°53.566 17.1001 0.068964 0.357448 -1.801521
2008-04-25 06:58:25 51°16.048 2°53.551 17.1217 0.068964 0.357442 -1.801521
2008-04-25 06:58:30 51°16.062 2°53.537 17.0992 0.068964 0.357448 -1.801521
2008-04-25 06:58:35 51°16.077 2°53.523 17.1092 0.068964 0.357436 -1.801521
2008-04-25 06:58:40 51°16.092 2°53.509 17.1603 0.068964 0.357436 -1.801521
2008-04-25 06:58:45 51°16.107 2°53.496 17.1389 0.068964 0.357442 -1.801521
2008-04-25 06:58:50 51°16.121 2°53.483 17.1607 0.068964 0.357448 -1.801521
2008-04-25 06:58:55 51°16.136 2°53.469 16.911 0.068964 0.357454 -1.801521
2008-04-25 06:59:00 51°16.151 2°53.454 16.7535 0.068964 0.357454 -1.801521
2008-04-25 06:59:05 51°16.165 2°53.44 16.9271 0.068964 0.357454 -1.801521
2008-04-25 06:59:10 51°16.18 2°53.426 17.0114 0.068964 0.357454 -1.801521
2008-04-25 06:59:15 51°16.195 2°53.413 17.0087 0.068964 0.357454 -1.801521
2008-04-25 06:59:20 51°16.21 2°53.4 17.034 0.068964 0.357454 -1.801521
2008-04-25 06:59:25 51°16.226 2°53.387 16.976 0.068964 0.357454 -1.801521
2008-04-25 06:59:30 51°16.241 2°53.374 16.987 0.068964 0.35746 -1.801521
2008-04-25 06:59:35 51°16.256 2°53.361 17.0041 0.068964 0.35746 -1.801521
2008-04-25 06:59:40 51°16.271 2°53.348 16.9811 0.068964 0.35746 -1.801521
2008-04-25 06:59:45 51°16.286 2°53.334 16.9808 0.068964 0.357465 -1.801521
2008-04-25 06:59:50 51°16.301 2°53.32 16.9883 0.068964 0.357465 -1.801521
2008-04-25 06:59:55 51°16.316 2°53.306 16.993 0.068964 0.357465 -1.801521
2008-04-25 07:00:00 51°16.33 2°53.291 16.9943 0.068964 0.357471 -1.801521
2008-04-25 07:00:05 51°16.345 2°53.276 16.9974 0.068964 0.357465 -1.801521
2008-04-25 07:00:10 51°16.359 2°53.261 16.998 0.068964 0.357465 -1.801521
2008-04-25 07:00:15 51°16.373 2°53.245 16.9949 0.068964 0.357471 -1.766697
2008-04-25 07:00:20 51°16.388 2°53.23 16.9954 0.068964 0.357471 -1.801521
2008-04-25 07:00:25 51°16.403 2°53.217 17.0046 0.068964 0.357483 -1.801521
2008-04-25 07:00:29 51°16.414 2°53.206 17.0024 0.068964 0.357495 -1.801521
2008-04-25 07:00:35 51°16.433 2°53.19 17.0068 0.068964 0.357501 -1.801521
2008-04-25 07:00:40 51°16.448 2°53.178 17.0111 0.068964 0.357501 -1.801521
2008-04-25 07:00:45 51°16.463 2°53.166 17.0147 0.068964 0.357495 -1.766697
2008-04-25 07:00:50 51°16.479 2°53.154 17.0153 0.068964 0.357483 -1.801521
2008-04-25 07:00:55 51°16.495 2°53.143 17.0225 0.068964 0.357471 -1.766697
2008-04-25 07:01:00 51°16.511 2°53.133 17.0194 0.068964 0.35746 -1.801521
2008-04-25 07:01:05 51°16.527 2°53.122 17.021 0.068964 0.357454 -1.801521
2008-04-25 07:01:10 51°16.542 2°53.112 17.0219 0.068964 0.357454 -1.801521
2008-04-25 07:01:15 51°16.558 2°53.101 17.0208 0.068964 0.357465 -1.801521
2008-04-25 07:01:20 51°16.574 2°53.091 17.0304 0.068964 0.357465 -1.801521
2008-04-25 07:01:25 51°16.59 2°53.081 17.0314 0.068964 0.357477 -1.801521
2008-04-25 07:01:30 51°16.606 2°53.07 17.0311 0.068964 0.357495 -1.801521
2008-04-25 07:01:35 51°16.622 2°53.059 17.0317 0.068964 0.357495 -1.801521
2008-04-25 07:01:40 51°16.638 2°53.048 17.0361 0.068964 0.357495 -1.801521
2008-04-25 07:01:45 51°16.654 2°53.037 17.035 0.068964 0.357501 -1.766697
2008-04-25 07:01:50 51°16.669 2°53.026 17.0371 0.068964 0.357501 -1.801521
2008-04-25 07:01:55 51°16.685 2°53.015 17.0367 0.068964 0.357495 -1.801521
2008-04-25 07:02:00 51°16.701 2°53.003 17.0387 0.068964 0.357495 -1.766697
2008-04-25 07:02:05 51°16.716 2°52.992 17.0389 0.068964 0.357495 -1.801521
2008-04-25 07:02:10 51°16.732 2°52.98 17.0405 0.068964 0.357495 -1.801521
2008-04-25 07:02:15 51°16.748 2°52.969 17.0443 0.068964 0.357489 -1.766697
2008-04-25 07:02:20 51°16.763 2°52.957 17.0404 0.068964 0.357495 -1.801521
2008-04-25 07:02:25 51°16.779 2°52.946 17.0504 0.068964 0.357495 -1.801521
2008-04-25 07:02:30 51°16.795 2°52.935 17.0472 0.068964 0.357501 -1.801521
2008-04-25 07:02:35 51°16.81 2°52.923 17.0533 0.068964 0.357507 -1.766697
2008-04-25 07:02:40 51°16.826 2°52.913 17.0379 0.068964 0.357507 -1.766697
2008-04-25 07:02:45 51°16.841 2°52.902 17.0475 0.068964 0.357507 -1.801521
2008-04-25 07:02:50 51°16.857 2°52.89 17.0536 0.068964 0.357507 -1.801521
2008-04-25 07:02:55 51°16.872 2°52.879 17.0554 0.068964 0.357507 -1.801521
2008-04-25 07:03:00 51°16.887 2°52.868 17.0471 0.068964 0.357501 -1.801521
2008-04-25 07:03:05 51°16.903 2°52.857 17.0552 0.068964 0.357507 -1.801521
2008-04-25 07:03:10 51°16.919 2°52.846 17.0728 0.068964 0.357507 -1.801521
2008-04-25 07:03:15 51°16.934 2°52.835 17.0583 0.068964 0.357507 -1.766697
2008-04-25 07:03:20 51°16.95 2°52.824 17.0705 0.068964 0.357507 -1.766697
2008-04-25 07:03:25 51°16.965 2°52.813 17.0619 0.068964 0.357512 -1.801521
2008-04-25 07:03:30 51°16.981 2°52.802 17.0727 0.068964 0.357518 -1.766697
2008-04-25 07:03:35 51°16.996 2°52.79 17.0687 0.068964 0.357518 -1.766697
2008-04-25 07:03:40 51°17.012 2°52.778 17.0633 0.068964 0.357518 -1.766697
2008-04-25 07:03:45 51°17.027 2°52.767 17.0615 0.068964 0.357518 -1.766697
2008-04-25 07:03:50 51°17.043 2°52.755 17.0625 0.068964 0.357518 -1.766697
2008-04-25 07:03:55 51°17.059 2°52.744 17.0623 0.068964 0.357518 -1.801521
2008-04-25 07:04:00 51°17.074 2°52.733 17.0635 0.068964 0.357524 -1.766697
2008-04-25 07:04:05 51°17.09 2°52.722 17.0348 0.068964 0.357512 -1.801521
2008-04-25 07:04:10 51°17.106 2°52.714 17.0295 0.068964 0.357512 -1.801521
2008-04-25 07:04:15 51°17.123 2°52.706 17.0494 0.068964 0.357518 -1.801521
2008-04-25 07:04:20 51°17.139 2°52.698 17.062 0.068964 0.357518 -1.801521
2008-04-25 07:04:25 51°17.155 2°52.692 17.0654 0.068964 0.357518 -1.801521
2008-04-25 07:04:30 51°17.172 2°52.686 17.0687 0.068964 0.35753 -1.801521
2008-04-25 07:04:35 51°17.189 2°52.681 17.0651 0.068964 0.357524 -1.801521
2008-04-25 07:04:40 51°17.205 2°52.676 17.0744 0.068964 0.357524 -1.801521
2008-04-25 07:04:45 51°17.222 2°52.671 17.0663 0.068964 0.357536 -1.766697
2008-04-25 07:04:49 51°17.235 2°52.668 17.075 0.068964 0.35753 -1.801521
2008-04-25 07:04:55 51°17.255 2°52.662 17.0797 0.068964 0.35753 -1.801521
2008-04-25 07:05:00 51°17.272 2°52.658 17.0735 0.068964 0.357536 -1.801521
2008-04-25 07:05:05 51°17.289 2°52.655 17.0839 0.068964 0.357536 -1.801521
2008-04-25 07:05:10 51°17.307 2°52.651 17.0778 0.068964 0.357536 -1.801521
2008-04-25 07:05:15 51°17.323 2°52.647 17.0827 0.068964 0.357536 -1.801521
2008-04-25 07:05:20 51°17.34 2°52.642 17.0845 0.068964 0.357542 -1.801521
2008-04-25 07:05:25 51°17.357 2°52.638 17.0864 0.068964 0.357542 -1.801521
2008-04-25 07:05:30 51°17.374 2°52.634 17.0842 0.068964 0.357548 -1.801521
2008-04-25 07:05:35 51°17.391 2°52.629 17.0896 0.068964 0.357548 -1.801521
2008-04-25 07:05:40 51°17.408 2°52.625 17.0896 0.068964 0.357548 -1.801521
2008-04-25 07:05:45 51°17.424 2°52.62 17.1092 0.068964 0.357548 -1.801521
2008-04-25 07:05:50 51°17.441 2°52.614 17.1236 0.068964 0.357548 -1.801521
2008-04-25 07:05:55 51°17.458 2°52.609 17.1243 0.068964 0.357554 -1.801521
2008-04-25 07:06:00 51°17.474 2°52.603 17.0798 0.068964 0.357554 -1.766697
2008-04-25 07:06:05 51°17.491 2°52.599 17.093 0.068964 0.357554 -1.801521
2008-04-25 07:06:10 51°17.507 2°52.593 17.1212 0.068964 0.357554 -1.801521
2008-04-25 07:06:15 51°17.524 2°52.589 17.1339 0.068964 0.357565 -1.766697
2008-04-25 07:06:20 51°17.54 2°52.583 17.1352 0.068964 0.357554 -1.801521
2008-04-25 07:06:25 51°17.557 2°52.578 17.1364 0.068964 0.357554 -1.766697
2008-04-25 07:06:30 51°17.573 2°52.572 17.1445 0.068964 0.357554 -1.801521
2008-04-25 07:06:35 51°17.59 2°52.568 17.1375 0.068964 0.357554 -1.801521
2008-04-25 07:06:40 51°17.606 2°52.562 17.1379 0.068964 0.357554 -1.801521
2008-04-25 07:06:45 51°17.623 2°52.557 17.1416 0.068964 0.357548 -1.801521
2008-04-25 07:06:50 51°17.639 2°52.553 17.1288 0.068964 0.357554 -1.801521
2008-04-25 07:06:55 51°17.656 2°52.549 17.144 0.068964 0.357554 -1.801521
2008-04-25 07:07:00 51°17.673 2°52.546 17.1346 0.068964 0.357565 -1.801521
2008-04-25 07:07:05 51°17.69 2°52.542 17.14 0.068964 0.357571 -1.801521
2008-04-25 07:07:10 51°17.706 2°52.54 17.137 0.068964 0.357571 -1.801521
2008-04-25 07:07:15 51°17.723 2°52.538 17.1435 0.068964 0.357577 -1.801521
2008-04-25 07:07:20 51°17.74 2°52.537 17.1465 0.068964 0.357583 -1.801521
2008-04-25 07:07:25 51°17.757 2°52.534 17.144 0.068964 0.357577 -1.801521
2008-04-25 07:07:30 51°17.774 2°52.533 17.1546 0.068964 0.357595 -1.766697
2008-04-25 07:07:35 51°17.791 2°52.53 17.1519 0.068964 0.357577 -1.766697
2008-04-25 07:07:40 51°17.808 2°52.529 17.154 0.068964 0.357577 -1.766697
2008-04-25 07:07:45 51°17.825 2°52.525 17.1573 0.068964 0.357583 -1.801521
2008-04-25 07:07:50 51°17.842 2°52.523 17.1604 0.068964 0.357583 -1.801521
2008-04-25 07:07:55 51°17.858 2°52.52 17.1512 0.068964 0.357577 -1.801521
2008-04-25 07:08:00 51°17.875 2°52.518 17.1522 0.068964 0.357577 -1.801521
2008-04-25 07:08:05 51°17.892 2°52.515 17.1656 0.068964 0.357577 -1.801521
2008-04-25 07:08:10 51°17.909 2°52.513 17.1554 0.068964 0.357577 -1.801521
2008-04-25 07:08:15 51°17.926 2°52.511 17.1577 0.068964 0.357571 -1.766697
2008-04-25 07:08:20 51°17.943 2°52.509 17.1486 0.068964 0.357583 -1.766697
2008-04-25 07:08:25 51°17.96 2°52.508 17.1669 0.068964 0.357583 -1.801521
2008-04-25 07:08:30 51°17.977 2°52.507 17.1576 0.068964 0.357583 -1.801521
2008-04-25 07:08:35 51°17.994 2°52.505 17.1719 0.068964 0.357595 -1.766697
2008-04-25 07:08:40 51°18.011 2°52.505 17.1685 0.068964 0.357595 -1.766697
2008-04-25 07:08:45 51°18.028 2°52.502 17.1857 0.068964 0.357595 -1.801521
2008-04-25 07:08:50 51°18.045 2°52.501 17.1758 0.068964 0.357606 -1.766697
2008-04-25 07:08:55 51°18.062 2°52.499 17.1932 0.068964 0.357601 -1.801521
2008-04-25 07:09:00 51°18.078 2°52.498 17.1463 0.068964 0.357612 -1.801521
2008-04-25 07:09:05 51°18.095 2°52.495 17.1497 0.068964 0.357589 -1.766697
2008-04-25 07:09:10 51°18.112 2°52.499 17.1615 0.068964 0.357589 -1.766697
2008-04-25 07:09:15 51°18.129 2°52.499 17.1653 0.068964 0.357595 -1.766697
2008-04-25 07:09:20 51°18.145 2°52.506 17.1689 0.068964 0.357589 -1.801521
2008-04-25 07:09:25 51°18.161 2°52.511 17.1672 0.068964 0.357589 -1.801521
2008-04-25 07:09:30 51°18.177 2°52.519 17.1848 0.068964 0.357606 -1.801521
2008-04-25 07:09:35 51°18.192 2°52.529 17.1496 0.068964 0.357606 -1.801521
2008-04-25 07:09:40 51°18.207 2°52.539 17.1823 0.068964 0.357606 -1.801521
2008-04-25 07:09:45 51°18.221 2°52.554 17.147 0.068964 0.357618 -1.801521
2008-04-25 07:09:50 51°18.235 2°52.567 17.1791 0.068964 0.357612 -1.801521
2008-04-25 07:09:55 51°18.247 2°52.584 17.1692 0.068964 0.357624 -1.766697
2008-04-25 07:10:00 51°18.26 2°52.601 17.1734 0.068964 0.357618 -1.801521
2008-04-25 07:10:05 51°18.271 2°52.62 17.1636 0.068964 0.357624 -1.801521
2008-04-25 07:10:10 51°18.281 2°52.639 17.161 0.068964 0.357624 -1.801521
2008-04-25 07:10:15 51°18.29 2°52.661 17.0638 0.068964 0.357618 -1.766697
2008-04-25 07:10:20 51°18.299 2°52.682 17.0451 0.068964 0.357624 -1.801521
2008-04-25 07:10:25 51°18.306 2°52.704 17.053 0.068964 0.357612 -1.801521
2008-04-25 07:10:30 51°18.312 2°52.728 17.0593 0.068964 0.357636 -1.801521
2008-04-25 07:10:35 51°18.319 2°52.751 17.0632 0.068964 0.357618 -1.801521
2008-04-25 07:10:40 51°18.324 2°52.775 17.0713 0.068964 0.357618 -1.801521
2008-04-25 07:10:45 51°18.33 2°52.799 17.079 0.068964 0.357624 -1.801521
2008-04-25 07:10:50 51°18.335 2°52.823 17.0846 0.068964 0.35763 -1.801521
2008-04-25 07:10:55 51°18.341 2°52.846 17.0852 0.068964 0.35763 -1.801521
2008-04-25 07:11:00 51°18.346 2°52.871 17.0881 0.068964 0.35763 -1.801521
2008-04-25 07:11:05 51°18.351 2°52.895 17.0888 0.068964 0.35763 -1.801521
2008-04-25 07:11:10 51°18.357 2°52.919 17.0891 0.068964 0.35763 -1.801521
2008-04-25 07:11:15 51°18.362 2°52.943 17.095 0.068964 0.35763 -1.801521
2008-04-25 07:11:20 51°18.367 2°52.967 17.0966 0.068964 0.35763 -1.801521
2008-04-25 07:11:25 51°18.372 2°52.991 17.1003 0.068964 0.357636 -1.801521
2008-04-25 07:11:29 51°18.376 2°53.011 17.0994 0.068964 0.357642 -1.801521
2008-04-25 07:11:35 51°18.384 2°53.039 17.1123 0.068964 0.35763 -1.801521
2008-04-25 07:11:40 51°18.389 2°53.063 17.112 0.068964 0.35763 -1.801521
2008-04-25 07:11:45 51°18.396 2°53.087 17.1107 0.068964 0.357642 -1.801521
2008-04-25 07:11:50 51°18.402 2°53.111 17.1061 0.068964 0.357642 -1.801521
2008-04-25 07:11:55 51°18.408 2°53.134 17.1208 0.068964 0.35763 -1.801521
2008-04-25 07:12:00 51°18.414 2°53.157 17.1141 0.068964 0.357636 -1.801521
2008-04-25 07:12:05 51°18.42 2°53.181 17.1251 0.068964 0.357648 -1.766697
2008-04-25 07:12:10 51°18.427 2°53.205 17.118 0.068964 0.357648 -1.766697
2008-04-25 07:12:15 51°18.433 2°53.228 17.1231 0.068964 0.357642 -1.801521
2008-04-25 07:12:20 51°18.44 2°53.251 17.1253 0.068964 0.357648 -1.766697
2008-04-25 07:12:25 51°18.447 2°53.274 17.1253 0.068964 0.357648 -1.801521
2008-04-25 07:12:30 51°18.453 2°53.297 17.132 0.068964 0.357654 -1.801521
2008-04-25 07:12:35 51°18.46 2°53.321 17.1167 0.068964 0.357648 -1.801521
2008-04-25 07:12:40 51°18.468 2°53.343 17.1394 0.068964 0.357648 -1.801521
2008-04-25 07:12:45 51°18.474 2°53.367 17.1406 0.068964 0.357648 -1.801521
2008-04-25 07:12:50 51°18.481 2°53.389 17.126 0.068964 0.357659 -1.801521
2008-04-25 07:12:55 51°18.488 2°53.412 17.1441 0.068964 0.357654 -1.766697
2008-04-25 07:13:00 51°18.495 2°53.435 17.1279 0.068964 0.357654 -1.801521
2008-04-25 07:13:05 51°18.502 2°53.458 17.1475 0.068964 0.357654 -1.801521
2008-04-25 07:13:10 51°18.509 2°53.481 17.1313 0.068964 0.357654 -1.801521
2008-04-25 07:13:15 51°18.516 2°53.504 17.1475 0.068964 0.357654 -1.801521
2008-04-25 07:13:20 51°18.523 2°53.526 17.1459 0.068964 0.357659 -1.801521
2008-04-25 07:13:25 51°18.53 2°53.549 17.1359 0.068964 0.357659 -1.801521
2008-04-25 07:13:30 51°18.537 2°53.572 17.1527 0.068964 0.357659 -1.766697
2008-04-25 07:13:35 51°18.544 2°53.595 17.1281 0.068964 0.357654 -1.766697
2008-04-25 07:13:40 51°18.552 2°53.618 17.1614 0.068964 0.357654 -1.766697
2008-04-25 07:13:45 51°18.559 2°53.641 17.143 0.068964 0.357665 -1.801521
2008-04-25 07:13:50 51°18.567 2°53.663 17.1455 0.068964 0.357659 -1.801521
2008-04-25 07:13:55 51°18.574 2°53.686 17.156 0.068964 0.357659 -1.801521
2008-04-25 07:14:00 51°18.581 2°53.709 17.157 0.068964 0.357659 -1.801521
2008-04-25 07:14:05 51°18.589 2°53.732 17.165 0.068964 0.357659 -1.801521
2008-04-25 07:14:10 51°18.596 2°53.755 17.1467 0.068964 0.357659 -1.801521
2008-04-25 07:14:15 51°18.604 2°53.777 17.1742 0.068964 0.357654 -1.801521
2008-04-25 07:14:20 51°18.611 2°53.8 17.124 0.068964 0.357671 -1.731873
2008-04-25 07:14:25 51°18.618 2°53.823 17.118 0.068964 0.357659 -1.801521
2008-04-25 07:14:30 51°18.625 2°53.846 17.1323 0.068964 0.357659 -1.801521
2008-04-25 07:14:35 51°18.632 2°53.869 17.1382 0.068964 0.357677 -1.801521
2008-04-25 07:14:40 51°18.64 2°53.891 17.1332 0.068964 0.357677 -1.801521
2008-04-25 07:14:45 51°18.647 2°53.914 17.135 0.068964 0.357671 -1.801521
2008-04-25 07:14:50 51°18.655 2°53.937 17.1356 0.068964 0.357671 -1.801521
2008-04-25 07:14:55 51°18.662 2°53.96 17.1422 0.068964 0.357671 -1.801521
2008-04-25 07:15:00 51°18.67 2°53.982 17.1415 0.068964 0.357671 -1.801521
2008-04-25 07:15:05 51°18.677 2°54.005 17.1416 0.068964 0.357677 -1.801521
2008-04-25 07:15:10 51°18.684 2°54.027 17.1411 0.068964 0.357677 -1.801521
2008-04-25 07:15:15 51°18.691 2°54.051 17.1457 0.068964 0.357671 -1.801521
2008-04-25 07:15:20 51°18.699 2°54.074 17.1484 0.068964 0.357677 -1.766697
2008-04-25 07:15:25 51°18.706 2°54.096 17.1618 0.068964 0.357671 -1.801521
2008-04-25 07:15:30 51°18.713 2°54.119 17.1584 0.068964 0.357683 -1.801521
2008-04-25 07:15:35 51°18.72 2°54.142 17.1621 0.068964 0.357677 -1.766697
2008-04-25 07:15:40 51°18.727 2°54.165 17.1599 0.068964 0.357677 -1.766697
2008-04-25 07:15:45 51°18.734 2°54.188 17.1635 0.068964 0.357683 -1.801521
2008-04-25 07:15:50 51°18.742 2°54.211 17.159 0.068964 0.357689 -1.801521
2008-04-25 07:15:55 51°18.75 2°54.234 17.1633 0.068964 0.357677 -1.801521
2008-04-25 07:16:00 51°18.758 2°54.256 17.1695 0.068964 0.357677 -1.801521
2008-04-25 07:16:05 51°18.765 2°54.279 17.1604 0.068964 0.357683 -1.801521
2008-04-25 07:16:10 51°18.774 2°54.301 17.1566 0.068964 0.357683 -1.801521
2008-04-25 07:16:15 51°18.78 2°54.324 17.1723 0.068964 0.357671 -1.766697
2008-04-25 07:16:20 51°18.789 2°54.347 17.1619 0.068964 0.357683 -1.801521
2008-04-25 07:16:25 51°18.796 2°54.37 17.1721 0.068964 0.357683 -1.766697
2008-04-25 07:16:30 51°18.804 2°54.393 17.1651 0.068964 0.357677 -1.801521
2008-04-25 07:16:35 51°18.81 2°54.416 17.1802 0.068964 0.357683 -1.801521
2008-04-25 07:16:40 51°18.817 2°54.438 17.1709 0.068964 0.357683 -1.801521
2008-04-25 07:16:45 51°18.824 2°54.462 17.1887 0.068964 0.357689 -1.766697
2008-04-25 07:16:50 51°18.832 2°54.485 17.1696 0.068964 0.357689 -1.766697
2008-04-25 07:16:55 51°18.839 2°54.508 17.1855 0.068964 0.357683 -1.801521
2008-04-25 07:17:00 51°18.846 2°54.531 17.179 0.068964 0.357695 -1.801521
2008-04-25 07:17:05 51°18.853 2°54.554 17.1649 0.068964 0.357683 -1.801521
2008-04-25 07:17:10 51°18.861 2°54.577 17.194 0.068964 0.357683 -1.801521
2008-04-25 07:17:15 51°18.867 2°54.6 17.1717 0.068964 0.357695 -1.801521
2008-04-25 07:17:20 51°18.875 2°54.623 17.1994 0.068964 0.357683 -1.801521
2008-04-25 07:17:25 51°18.881 2°54.646 17.1803 0.068964 0.357695 -1.766697
2008-04-25 07:17:30 51°18.89 2°54.668 17.192 0.068964 0.357689 -1.801521
2008-04-25 07:17:35 51°18.897 2°54.691 17.1864 0.068964 0.357695 -1.801521
2008-04-25 07:17:40 51°18.905 2°54.713 17.1848 0.068964 0.357695 -1.801521
2008-04-25 07:17:45 51°18.912 2°54.736 17.1974 0.068964 0.357683 -1.801521
2008-04-25 07:17:50 51°18.921 2°54.758 17.1804 0.068964 0.357695 -1.801521
2008-04-25 07:17:55 51°18.928 2°54.781 17.203 0.068964 0.357689 -1.766697
2008-04-25 07:18:00 51°18.935 2°54.804 17.1816 0.068964 0.357689 -1.801521
2008-04-25 07:18:05 51°18.943 2°54.827 17.2087 0.068964 0.357701 -1.801521
2008-04-25 07:18:10 51°18.95 2°54.85 17.2034 0.068964 0.357701 -1.801521
2008-04-25 07:18:15 51°18.957 2°54.872 17.1965 0.068964 0.357706 -1.801521
2008-04-25 07:18:20 51°18.965 2°54.895 17.1975 0.068964 0.357701 -1.801521
2008-04-25 07:18:25 51°18.973 2°54.917 17.2139 0.068964 0.357701 -1.801521
2008-04-25 07:18:30 51°18.981 2°54.939 17.1917 0.068964 0.357701 -1.801521
2008-04-25 07:18:35 51°18.989 2°54.962 17.2072 0.068964 0.357695 -1.801521
2008-04-25 07:18:40 51°18.997 2°54.983 17.2119 0.068964 0.357695 -1.801521
2008-04-25 07:18:45 51°19.005 2°55.005 17.211 0.068964 0.357695 -1.801521
2008-04-25 07:18:50 51°19.014 2°55.027 17.1882 0.068964 0.357695 -1.801521
2008-04-25 07:18:55 51°19.021 2°55.049 17.216 0.068964 0.357695 -1.801521
2008-04-25 07:19:00 51°19.029 2°55.072 17.206 0.068964 0.357695 -1.801521
2008-04-25 07:19:05 51°19.037 2°55.094 17.2124 0.068964 0.357701 -1.801521
2008-04-25 07:19:10 51°19.044 2°55.116 17.2072 0.068964 0.357701 -1.801521
2008-04-25 07:19:15 51°19.052 2°55.139 17.2226 0.068964 0.357701 -1.801521
2008-04-25 07:19:20 51°19.059 2°55.161 17.2177 0.068964 0.357706 -1.801521
2008-04-25 07:19:25 51°19.067 2°55.184 17.2083 0.068964 0.357706 -1.801521
2008-04-25 07:19:30 51°19.074 2°55.206 17.2159 0.068964 0.357706 -1.801521
2008-04-25 07:19:35 51°19.082 2°55.229 17.2009 0.068964 0.357701 -1.801521
2008-04-25 07:19:40 51°19.089 2°55.252 17.2324 0.068964 0.357701 -1.801521
2008-04-25 07:19:45 51°19.096 2°55.275 17.2247 0.068964 0.357706 -1.801521
2008-04-25 07:19:50 51°19.103 2°55.298 17.2194 0.068964 0.357712 -1.766697
2008-04-25 07:19:55 51°19.111 2°55.32 17.2382 0.068964 0.357706 -1.801521
2008-04-25 07:20:00 51°19.118 2°55.344 17.2214 0.068964 0.357718 -1.801521
2008-04-25 07:20:05 51°19.125 2°55.366 17.2349 0.068964 0.357706 -1.801521
2008-04-25 07:20:10 51°19.132 2°55.388 17.2306 0.068964 0.357706 -1.801521
2008-04-25 07:20:15 51°19.14 2°55.411 17.2208 0.068964 0.357712 -1.766697
2008-04-25 07:20:20 51°19.148 2°55.433 17.199 0.068964 0.357724 -1.801521
2008-04-25 07:20:25 51°19.156 2°55.455 17.2412 0.068964 0.357701 -1.801521
2008-04-25 07:20:30 51°19.163 2°55.477 17.2178 0.068964 0.357712 -1.766697
2008-04-25 07:20:35 51°19.171 2°55.499 17.2402 0.068964 0.357718 -1.801521
2008-04-25 07:20:40 51°19.178 2°55.522 17.2022 0.068964 0.357718 -1.801521
2008-04-25 07:20:45 51°19.186 2°55.544 17.238 0.068964 0.357712 -1.801521
2008-04-25 07:20:50 51°19.191 2°55.568 17.2378 0.068964 0.357724 -1.801521
2008-04-25 07:20:55 51°19.199 2°55.591 17.2448 0.068964 0.357718 -1.801521
2008-04-25 07:21:00 51°19.204 2°55.615 17.2297 0.068964 0.35773 -1.801521
2008-04-25 07:21:05 51°19.211 2°55.638 17.2506 0.068964 0.357724 -1.801521
2008-04-25 07:21:10 51°19.217 2°55.662 17.2503 0.068964 0.357724 -1.801521
2008-04-25 07:21:15 51°19.224 2°55.685 17.2469 0.068964 0.357718 -1.801521
2008-04-25 07:21:20 51°19.23 2°55.709 17.2349 0.068964 0.357718 -1.801521
2008-04-25 07:21:25 51°19.236 2°55.731 17.2513 0.068964 0.357706 -1.801521
2008-04-25 07:21:30 51°19.241 2°55.755 17.2501 0.068964 0.357712 -1.766697
2008-04-25 07:21:35 51°19.248 2°55.778 17.2502 0.068964 0.357706 -1.801521
2008-04-25 07:21:40 51°19.254 2°55.802 17.2508 0.068964 0.357706 -1.801521
2008-04-25 07:21:45 51°19.26 2°55.826 17.2353 0.068964 0.357712 -1.801521
2008-04-25 07:21:50 51°19.266 2°55.849 17.2503 0.068964 0.357712 -1.801521
2008-04-25 07:21:55 51°19.271 2°55.873 17.2507 0.068964 0.357724 -1.801521
2008-04-25 07:22:00 51°19.277 2°55.896 17.2462 0.068964 0.357724 -1.801521
2008-04-25 07:22:05 51°19.282 2°55.92 17.2524 0.068964 0.357718 -1.801521
2008-04-25 07:22:10 51°19.288 2°55.944 17.2601 0.068964 0.357718 -1.801521
2008-04-25 07:22:15 51°19.293 2°55.967 17.2386 0.068964 0.357736 -1.766697
2008-04-25 07:22:20 51°19.299 2°55.991 17.2755 0.068964 0.357718 -1.766697
2008-04-25 07:22:25 51°19.304 2°56.015 17.243 0.068964 0.357736 -1.801521
2008-04-25 07:22:30 51°19.311 2°56.038 17.2552 0.068964 0.357724 -1.801521
2008-04-25 07:22:35 51°19.316 2°56.062 17.2679 0.068964 0.357724 -1.801521
2008-04-25 07:22:40 51°19.321 2°56.086 17.2645 0.068964 0.357724 -1.801521
2008-04-25 07:22:45 51°19.327 2°56.11 17.2525 0.068964 0.35773 -1.766697
2008-04-25 07:22:50 51°19.332 2°56.134 17.2767 0.068964 0.357718 -1.801521
2008-04-25 07:22:55 51°19.337 2°56.157 17.2722 0.068964 0.35773 -1.801521
2008-04-25 07:23:00 51°19.342 2°56.182 17.2603 0.068964 0.357736 -1.801521
2008-04-25 07:23:05 51°19.348 2°56.205 17.2633 0.068964 0.357718 -1.801521
2008-04-25 07:23:10 51°19.353 2°56.229 17.2778 0.068964 0.357718 -1.801521
2008-04-25 07:23:15 51°19.359 2°56.252 17.2748 0.068964 0.357736 -1.801521
2008-04-25 07:23:20 51°19.365 2°56.276 17.2743 0.068964 0.357736 -1.801521
2008-04-25 07:23:25 51°19.372 2°56.298 17.2708 0.068964 0.357724 -1.801521
2008-04-25 07:23:30 51°19.378 2°56.321 17.2544 0.068964 0.357742 -1.801521
2008-04-25 07:23:35 51°19.385 2°56.344 17.2402 0.068964 0.357724 -1.801521
2008-04-25 07:23:40 51°19.391 2°56.367 17.2845 0.068964 0.357724 -1.801521
2008-04-25 07:23:45 51°19.397 2°56.391 17.2652 0.068964 0.357736 -1.766697
2008-04-25 07:23:50 51°19.404 2°56.414 17.2537 0.068964 0.357736 -1.801521
2008-04-25 07:23:55 51°19.41 2°56.437 17.2794 0.068964 0.357736 -1.801521
2008-04-25 07:24:00 51°19.417 2°56.46 17.2773 0.068964 0.357736 -1.801521
2008-04-25 07:24:05 51°19.422 2°56.484 17.2951 0.068964 0.357748 -1.801521
2008-04-25 07:24:10 51°19.429 2°56.507 17.268 0.068964 0.357748 -1.801521
2008-04-25 07:24:15 51°19.435 2°56.53 17.2931 0.068964 0.357736 -1.801521
2008-04-25 07:24:20 51°19.441 2°56.553 17.2752 0.068964 0.357742 -1.801521
2008-04-25 07:24:25 51°19.448 2°56.576 17.269 0.068964 0.357742 -1.801521
2008-04-25 07:24:30 51°19.455 2°56.599 17.2752 0.068964 0.357736 -1.801521
2008-04-25 07:24:35 51°19.461 2°56.622 17.2982 0.068964 0.357742 -1.801521
2008-04-25 07:24:40 51°19.467 2°56.645 17.2616 0.068964 0.357742 -1.801521
2008-04-25 07:24:45 51°19.473 2°56.668 17.3085 0.068964 0.35773 -1.801521
2008-04-25 07:24:50 51°19.479 2°56.692 17.265 0.068964 0.357754 -1.801521
2008-04-25 07:24:55 51°19.486 2°56.715 17.3039 0.068964 0.357736 -1.801521
2008-04-25 07:25:00 51°19.491 2°56.739 17.287 0.068964 0.357759 -1.801521
2008-04-25 07:25:05 51°19.498 2°56.762 17.3039 0.068964 0.357742 -1.801521
2008-04-25 07:25:10 51°19.503 2°56.785 17.3111 0.068964 0.357742 -1.801521
2008-04-25 07:25:15 51°19.51 2°56.808 17.2971 0.068964 0.357754 -1.801521
2008-04-25 07:25:20 51°19.517 2°56.831 17.2704 0.068964 0.357754 -1.766697
2008-04-25 07:25:25 51°19.523 2°56.853 17.3101 0.068964 0.357736 -1.801521
2008-04-25 07:25:30 51°19.529 2°56.877 17.2989 0.068964 0.357754 -1.801521
2008-04-25 07:25:35 51°19.536 2°56.899 17.2889 0.068964 0.357736 -1.801521
2008-04-25 07:25:40 51°19.541 2°56.923 17.3084 0.068964 0.357736 -1.801521
2008-04-25 07:25:45 51°19.547 2°56.946 17.2909 0.068964 0.357754 -1.801521
2008-04-25 07:25:50 51°19.554 2°56.969 17.2829 0.068964 0.357748 -1.801521
2008-04-25 07:25:55 51°19.559 2°56.993 17.3008 0.068964 0.357742 -1.801521
2008-04-25 07:26:00 51°19.565 2°57.016 17.2765 0.068964 0.357748 -1.801521
2008-04-25 07:26:05 51°19.571 2°57.04 17.2686 0.068964 0.357742 -1.801521
2008-04-25 07:26:10 51°19.576 2°57.063 17.3222 0.068964 0.357742 -1.801521
2008-04-25 07:26:15 51°19.581 2°57.088 17.2693 0.068964 0.357754 -1.766697
2008-04-25 07:26:20 51°19.587 2°57.111 17.3092 0.068964 0.357742 -1.766697
2008-04-25 07:26:25 51°19.592 2°57.135 17.3184 0.068964 0.357754 -1.801521
2008-04-25 07:26:30 51°19.598 2°57.158 17.2787 0.068964 0.357754 -1.801521
2008-04-25 07:26:35 51°19.604 2°57.182 17.3054 0.068964 0.357748 -1.766697
2008-04-25 07:26:40 51°19.609 2°57.205 17.3139 0.068964 0.357748 -1.766697
2008-04-25 07:26:45 51°19.614 2°57.229 17.3129 0.068964 0.357754 -1.801521
2008-04-25 07:26:50 51°19.62 2°57.252 17.3168 0.068964 0.357754 -1.801521
2008-04-25 07:26:55 51°19.625 2°57.276 17.3091 0.068964 0.357754 -1.801521
2008-04-25 07:27:00 51°19.631 2°57.299 17.3004 0.068964 0.357754 -1.801521
2008-04-25 07:27:05 51°19.636 2°57.323 17.2917 0.068964 0.357748 -1.801521
2008-04-25 07:27:10 51°19.642 2°57.346 17.3 0.068964 0.357748 -1.801521
2008-04-25 07:27:15 51°19.647 2°57.369 17.3009 0.068964 0.357748 -1.801521
2008-04-25 07:27:20 51°19.653 2°57.393 17.3033 0.068964 0.357748 -1.801521
2008-04-25 07:27:25 51°19.658 2°57.416 17.3207 0.068964 0.357748 -1.801521
2008-04-25 07:27:30 51°19.663 2°57.439 17.3162 0.068964 0.357754 -1.801521
2008-04-25 07:27:35 51°19.668 2°57.463 17.3265 0.068964 0.357765 -1.801521
2008-04-25 07:27:40 51°19.674 2°57.487 17.3182 0.068964 0.357765 -1.801521
2008-04-25 07:27:45 51°19.68 2°57.51 17.3193 0.068964 0.357759 -1.801521
2008-04-25 07:27:50 51°19.685 2°57.533 17.3293 0.068964 0.357759 -1.801521
2008-04-25 07:27:55 51°19.69 2°57.557 17.312 0.068964 0.357759 -1.801521
2008-04-25 07:28:00 51°19.696 2°57.581 17.3078 0.068964 0.357765 -1.801521
2008-04-25 07:28:05 51°19.702 2°57.604 17.2997 0.068964 0.357754 -1.801521
2008-04-25 07:28:10 51°19.707 2°57.627 17.3338 0.068964 0.357754 -1.801521
2008-04-25 07:28:15 51°19.713 2°57.651 17.3072 0.068964 0.357759 -1.801521
2008-04-25 07:28:20 51°19.719 2°57.674 17.3208 0.068964 0.357754 -1.801521
2008-04-25 07:28:25 51°19.724 2°57.698 17.3402 0.068964 0.357765 -1.801521
2008-04-25 07:28:30 51°19.73 2°57.721 17.3244 0.068964 0.357765 -1.801521
2008-04-25 07:28:35 51°19.735 2°57.744 17.3403 0.068964 0.357765 -1.801521
2008-04-25 07:28:40 51°19.741 2°57.767 17.3331 0.068964 0.357765 -1.801521
2008-04-25 07:28:45 51°19.747 2°57.79 17.3181 0.068964 0.357777 -1.801521
2008-04-25 07:28:50 51°19.754 2°57.812 17.3014 0.068964 0.357765 -1.801521
2008-04-25 07:28:55 51°19.759 2°57.836 17.2979 0.068964 0.357765 -1.801521
2008-04-25 07:29:00 51°19.766 2°57.859 17.3395 0.068964 0.357759 -1.801521
2008-04-25 07:29:05 51°19.771 2°57.882 17.3448 0.068964 0.357771 -1.801521
2008-04-25 07:29:10 51°19.776 2°57.905 17.3325 0.068964 0.357771 -1.801521
2008-04-25 07:29:15 51°19.782 2°57.928 17.3378 0.068964 0.357771 -1.801521
2008-04-25 07:29:20 51°19.787 2°57.952 17.3466 0.068964 0.357771 -1.766697
2008-04-25 07:29:25 51°19.793 2°57.975 17.3399 0.068964 0.357777 -1.801521
2008-04-25 07:29:30 51°19.799 2°57.999 17.341 0.068964 0.357771 -1.801521
2008-04-25 07:29:35 51°19.804 2°58.022 17.3422 0.068964 0.357771 -1.801521
2008-04-25 07:29:40 51°19.81 2°58.045 17.3251 0.068964 0.357771 -1.801521
2008-04-25 07:29:45 51°19.815 2°58.069 17.3111 0.068964 0.357771 -1.801521
2008-04-25 07:29:50 51°19.821 2°58.092 17.3392 0.068964 0.357765 -1.801521
2008-04-25 07:29:55 51°19.825 2°58.116 17.3338 0.068964 0.357777 -1.801521
2008-04-25 07:30:00 51°19.831 2°58.139 17.3044 0.068964 0.357777 -1.801521
2008-04-25 07:30:05 51°19.836 2°58.162 17.3558 0.068964 0.357771 -1.801521
2008-04-25 07:30:10 51°19.841 2°58.185 17.3555 0.068964 0.357771 -1.801521
2008-04-25 07:30:15 51°19.847 2°58.208 17.3375 0.068964 0.357783 -1.801521
2008-04-25 07:30:20 51°19.852 2°58.232 17.3369 0.068964 0.357777 -1.801521
2008-04-25 07:30:25 51°19.858 2°58.254 17.3549 0.068964 0.357771 -1.801521
2008-04-25 07:30:30 51°19.863 2°58.278 17.3166 0.068964 0.357777 -1.801521
2008-04-25 07:30:35 51°19.869 2°58.301 17.3654 0.068964 0.357777 -1.766697
2008-04-25 07:30:40 51°19.874 2°58.324 17.3427 0.068964 0.357777 -1.766697
2008-04-25 07:30:45 51°19.88 2°58.347 17.3621 0.068964 0.357777 -1.801521
2008-04-25 07:30:50 51°19.886 2°58.37 17.3497 0.068964 0.357783 -1.766697
2008-04-25 07:30:55 51°19.892 2°58.393 17.3535 0.068964 0.357783 -1.801521
2008-04-25 07:31:00 51°19.898 2°58.416 17.3635 0.068964 0.357783 -1.801521
2008-04-25 07:31:05 51°19.905 2°58.439 17.3729 0.068964 0.357789 -1.801521
2008-04-25 07:31:10 51°19.911 2°58.461 17.3304 0.068964 0.357789 -1.801521
2008-04-25 07:31:15 51°19.917 2°58.484 17.3666 0.068964 0.357777 -1.801521
2008-04-25 07:31:20 51°19.923 2°58.507 17.3315 0.068964 0.357795 -1.801521
2008-04-25 07:31:25 51°19.93 2°58.53 17.3335 0.068964 0.357771 -1.801521
2008-04-25 07:31:30 51°19.936 2°58.553 17.3654 0.068964 0.357783 -1.801521
2008-04-25 07:31:35 51°19.942 2°58.576 17.3325 0.068964 0.357783 -1.766697
2008-04-25 07:31:40 51°19.948 2°58.599 17.342 0.068964 0.357783 -1.766697
2008-04-25 07:31:45 51°19.953 2°58.622 17.3706 0.068964 0.357777 -1.801521
2008-04-25 07:31:50 51°19.959 2°58.645 17.3674 0.068964 0.357789 -1.801521
2008-04-25 07:31:55 51°19.965 2°58.668 17.3484 0.068964 0.357789 -1.801521
2008-04-25 07:32:00 51°19.97 2°58.691 17.3678 0.068964 0.357783 -1.801521
2008-04-25 07:32:05 51°19.976 2°58.714 17.369 0.068964 0.357783 -1.801521
2008-04-25 07:32:10 51°19.982 2°58.737 17.3635 0.068964 0.357783 -1.801521
2008-04-25 07:32:15 51°19.987 2°58.76 17.3931 0.068964 0.357789 -1.801521
2008-04-25 07:32:20 51°19.993 2°58.783 17.3497 0.068964 0.357795 -1.766697
2008-04-25 07:32:25 51°19.999 2°58.806 17.372 0.068964 0.357783 -1.801521
2008-04-25 07:32:30 51°20.005 2°58.829 17.3834 0.068964 0.357789 -1.801521
2008-04-25 07:32:35 51°20.01 2°58.852 17.3608 0.068964 0.357789 -1.801521
2008-04-25 07:32:40 51°20.016 2°58.875 17.3807 0.068964 0.357789 -1.801521
2008-04-25 07:32:45 51°20.022 2°58.898 17.3831 0.068964 0.357789 -1.801521
2008-04-25 07:32:50 51°20.028 2°58.92 17.3868 0.068964 0.357795 -1.801521
2008-04-25 07:32:55 51°20.033 2°58.943 17.3596 0.068964 0.357795 -1.801521
2008-04-25 07:33:00 51°20.04 2°58.966 17.3837 0.068964 0.357795 -1.801521
2008-04-25 07:33:05 51°20.045 2°58.989 17.3339 0.068964 0.357801 -1.801521
2008-04-25 07:33:10 51°20.052 2°59.011 17.356 0.068964 0.357801 -1.801521
2008-04-25 07:33:15 51°20.057 2°59.034 17.3791 0.068964 0.357789 -1.801521
2008-04-25 07:33:20 51°20.063 2°59.057 17.3641 0.068964 0.357795 -1.801521
2008-04-25 07:33:25 51°20.069 2°59.08 17.3687 0.068964 0.357795 -1.801521
2008-04-25 07:33:30 51°20.075 2°59.103 17.3762 0.068964 0.357789 -1.801521
2008-04-25 07:33:35 51°20.08 2°59.126 17.3932 0.068964 0.357795 -1.801521
2008-04-25 07:33:40 51°20.086 2°59.149 17.3504 0.068964 0.357795 -1.801521
2008-04-25 07:33:45 51°20.092 2°59.172 17.362 0.068964 0.357795 -1.801521
2008-04-25 07:33:50 51°20.097 2°59.195 17.3968 0.068964 0.357795 -1.766697
2008-04-25 07:33:55 51°20.103 2°59.218 17.3663 0.068964 0.357801 -1.801521
2008-04-25 07:34:00 51°20.109 2°59.241 17.3773 0.068964 0.357795 -1.801521
2008-04-25 07:34:05 51°20.115 2°59.264 17.3872 0.068964 0.357795 -1.801521
2008-04-25 07:34:10 51°20.12 2°59.287 17.3922 0.068964 0.357795 -1.801521
2008-04-25 07:34:15 51°20.126 2°59.31 17.3926 0.068964 0.357795 -1.801521
2008-04-25 07:34:20 51°20.131 2°59.333 17.3864 0.068964 0.357801 -1.801521
2008-04-25 07:34:25 51°20.137 2°59.356 17.374 0.068964 0.357795 -1.801521
2008-04-25 07:34:30 51°20.142 2°59.38 17.3988 0.068964 0.357795 -1.801521
2008-04-25 07:34:35 51°20.148 2°59.403 17.3758 0.068964 0.357807 -1.801521
2008-04-25 07:34:40 51°20.153 2°59.426 17.3414 0.068964 0.357807 -1.801521
2008-04-25 07:34:45 51°20.159 2°59.449 17.3927 0.068964 0.357801 -1.801521
2008-04-25 07:34:50 51°20.163 2°59.473 17.3774 0.068964 0.357801 -1.801521
2008-04-25 07:34:55 51°20.169 2°59.496 17.3652 0.068964 0.357801 -1.801521
2008-04-25 07:35:00 51°20.173 2°59.52 17.3724 0.068964 0.357801 -1.801521
2008-04-25 07:35:05 51°20.178 2°59.544 17.3962 0.068964 0.357795 -1.801521
2008-04-25 07:35:10 51°20.182 2°59.567 17.4323 0.068964 0.357795 -1.801521
2008-04-25 07:35:15 51°20.186 2°59.591 17.4089 0.068964 0.357807 -1.801521
2008-04-25 07:35:20 51°20.191 2°59.615 17.388 0.068964 0.357807 -1.801521
2008-04-25 07:35:25 51°20.195 2°59.638 17.4088 0.068964 0.357807 -1.801521
2008-04-25 07:35:30 51°20.2 2°59.661 17.4273 0.068964 0.357812 -1.801521
2008-04-25 07:35:35 51°20.205 2°59.685 17.3856 0.068964 0.357812 -1.801521
2008-04-25 07:35:40 51°20.211 2°59.708 17.3773 0.068964 0.357812 -1.801521
2008-04-25 07:35:45 51°20.216 2°59.731 17.3681 0.068964 0.357801 -1.801521
2008-04-25 07:35:50 51°20.221 2°59.754 17.4037 0.068964 0.357795 -1.801521
2008-04-25 07:35:55 51°20.226 2°59.778 17.3884 0.068964 0.357801 -1.801521
2008-04-25 07:36:00 51°20.23 2°59.801 17.4013 0.068964 0.357801 -1.801521
2008-04-25 07:36:05 51°20.234 2°59.825 17.4149 0.068964 0.357807 -1.801521
2008-04-25 07:36:10 51°20.239 2°59.848 17.4127 0.068964 0.357807 -1.801521
2008-04-25 07:36:15 51°20.244 2°59.872 17.4221 0.068964 0.357807 -1.801521
2008-04-25 07:36:20 51°20.248 2°59.896 17.4106 0.068964 0.357812 -1.766697
2008-04-25 07:36:25 51°20.253 2°59.919 17.399 0.068964 0.357807 -1.801521
2008-04-25 07:36:30 51°20.258 2°59.943 17.4256 0.068964 0.357807 -1.801521
2008-04-25 07:36:35 51°20.263 2°59.966 17.4154 0.068964 0.357812 -1.801521
2008-04-25 07:36:40 51°20.268 2°59.99 17.4012 0.068964 0.357812 -1.801521
2008-04-25 07:36:45 51°20.272 3°0.014 17.3847 0.068964 0.357812 -1.801521
2008-04-25 07:36:50 51°20.277 3°0.037 17.4222 0.068964 0.357807 -1.801521
2008-04-25 07:36:55 51°20.282 3°0.061 17.398 0.068964 0.357812 -1.801521
2008-04-25 07:37:00 51°20.286 3°0.085 17.3872 0.068964 0.357812 -1.801521
2008-04-25 07:37:05 51°20.291 3°0.108 17.4172 0.068964 0.357812 -1.801521
2008-04-25 07:37:10 51°20.296 3°0.132 17.4232 0.068964 0.357812 -1.801521
2008-04-25 07:37:15 51°20.3 3°0.156 17.3872 0.068964 0.357818 -1.801521
2008-04-25 07:37:20 51°20.306 3°0.18 17.4068 0.068964 0.357812 -1.801521
2008-04-25 07:37:25 51°20.31 3°0.203 17.4387 0.068964 0.357812 -1.801521
2008-04-25 07:37:30 51°20.315 3°0.226 17.4362 0.068964 0.357818 -1.801521
2008-04-25 07:37:35 51°20.321 3°0.249 17.4244 0.068964 0.357824 -1.801521
2008-04-25 07:37:40 51°20.326 3°0.273 17.4162 0.068964 0.357824 -1.801521
2008-04-25 07:37:45 51°20.332 3°0.296 17.4068 0.068964 0.357824 -1.801521
2008-04-25 07:37:50 51°20.337 3°0.319 17.3993 0.068964 0.357824 -1.801521
2008-04-25 07:37:55 51°20.342 3°0.342 17.4144 0.068964 0.357812 -1.766697
2008-04-25 07:38:00 51°20.347 3°0.365 17.4005 0.068964 0.357818 -1.801521
2008-04-25 07:38:05 51°20.353 3°0.388 17.4007 0.068964 0.357818 -1.766697
2008-04-25 07:38:10 51°20.358 3°0.412 17.4123 0.068964 0.357818 -1.766697
2008-04-25 07:38:15 51°20.363 3°0.435 17.4077 0.068964 0.357824 -1.766697
2008-04-25 07:38:20 51°20.368 3°0.459 17.4132 0.068964 0.357818 -1.801521
2008-04-25 07:38:25 51°20.373 3°0.482 17.3946 0.068964 0.35783 -1.801521
2008-04-25 07:38:30 51°20.378 3°0.505 17.3749 0.068964 0.357818 -1.801521
2008-04-25 07:38:35 51°20.382 3°0.529 17.4391 0.068964 0.35783 -1.801521
2008-04-25 07:38:40 51°20.388 3°0.553 17.3952 0.068964 0.35783 -1.801521
2008-04-25 07:38:45 51°20.393 3°0.576 17.4387 0.068964 0.357824 -1.801521
2008-04-25 07:38:50 51°20.398 3°0.6 17.434 0.068964 0.35783 -1.801521
2008-04-25 07:38:55 51°20.403 3°0.623 17.435 0.068964 0.357824 -1.801521
2008-04-25 07:39:00 51°20.408 3°0.647 17.4166 0.068964 0.357824 -1.801521
2008-04-25 07:39:05 51°20.412 3°0.67 17.4124 0.068964 0.357836 -1.801521
2008-04-25 07:39:10 51°20.418 3°0.694 17.3869 0.068964 0.357836 -1.801521
2008-04-25 07:39:15 51°20.423 3°0.717 17.45 0.068964 0.357824 -1.801521
2008-04-25 07:39:20 51°20.428 3°0.741 17.4368 0.068964 0.357824 -1.801521
2008-04-25 07:39:25 51°20.433 3°0.764 17.3937 0.068964 0.35783 -1.801521
2008-04-25 07:39:30 51°20.438 3°0.787 17.4328 0.068964 0.357824 -1.801521
2008-04-25 07:39:35 51°20.442 3°0.811 17.4096 0.068964 0.357836 -1.801521
2008-04-25 07:39:40 51°20.448 3°0.835 17.4497 0.068964 0.357836 -1.801521
2008-04-25 07:39:45 51°20.453 3°0.858 17.4442 0.068964 0.357836 -1.801521
2008-04-25 07:39:50 51°20.458 3°0.882 17.4423 0.068964 0.357836 -1.801521
2008-04-25 07:39:55 51°20.463 3°0.905 17.4194 0.068964 0.357842 -1.801521
2008-04-25 07:40:00 51°20.469 3°0.929 17.4131 0.068964 0.35783 -1.801521
2008-04-25 07:40:05 51°20.473 3°0.952 17.4581 0.068964 0.357836 -1.801521
2008-04-25 07:40:10 51°20.478 3°0.976 17.4237 0.068964 0.357836 -1.801521
2008-04-25 07:40:15 51°20.484 3°0.999 17.426 0.068964 0.357842 -1.801521
2008-04-25 07:40:20 51°20.489 3°1.023 17.4742 0.068964 0.35783 -1.801521
2008-04-25 07:40:25 51°20.494 3°1.047 17.4084 0.068964 0.357842 -1.801521
2008-04-25 07:40:30 51°20.5 3°1.07 17.436 0.068964 0.357836 -1.801521
2008-04-25 07:40:35 51°20.506 3°1.094 17.3989 0.068964 0.35783 -1.801521
2008-04-25 07:40:40 51°20.511 3°1.117 17.4447 0.068964 0.35783 -1.801521
2008-04-25 07:40:45 51°20.516 3°1.141 17.4356 0.068964 0.357836 -1.801521
2008-04-25 07:40:50 51°20.522 3°1.164 17.4342 0.068964 0.357836 -1.801521
2008-04-25 07:40:55 51°20.526 3°1.188 17.4412 0.068964 0.357836 -1.766697
2008-04-25 07:41:00 51°20.531 3°1.212 17.4671 0.068964 0.357842 -1.801521
2008-04-25 07:41:05 51°20.536 3°1.236 17.4561 0.068964 0.357842 -1.801521
2008-04-25 07:41:10 51°20.541 3°1.259 17.4494 0.068964 0.357842 -1.801521
2008-04-25 07:41:15 51°20.547 3°1.283 17.4289 0.068964 0.357848 -1.801521
2008-04-25 07:41:20 51°20.552 3°1.306 17.4673 0.068964 0.357842 -1.801521
2008-04-25 07:41:25 51°20.557 3°1.33 17.4785 0.068964 0.357842 -1.801521
2008-04-25 07:41:30 51°20.562 3°1.354 17.4547 0.068964 0.357854 -1.801521
2008-04-25 07:41:35 51°20.568 3°1.377 17.454 0.068964 0.357836 -1.801521
2008-04-25 07:41:40 51°20.573 3°1.401 17.4731 0.068964 0.357836 -1.801521
2008-04-25 07:41:45 51°20.579 3°1.424 17.4771 0.068964 0.357854 -1.801521
2008-04-25 07:41:50 51°20.584 3°1.448 17.4595 0.068964 0.357854 -1.801521
2008-04-25 07:41:55 51°20.59 3°1.472 17.4443 0.068964 0.357854 -1.801521
2008-04-25 07:42:00 51°20.596 3°1.495 17.4793 0.068964 0.357848 -1.801521
2008-04-25 07:42:05 51°20.602 3°1.518 17.4685 0.068964 0.357854 -1.801521
2008-04-25 07:42:10 51°20.608 3°1.541 17.4493 0.068964 0.357854 -1.801521
2008-04-25 07:42:15 51°20.615 3°1.564 17.4567 0.068964 0.357854 -1.801521
2008-04-25 07:42:20 51°20.62 3°1.587 17.4767 0.068964 0.357848 -1.801521
2008-04-25 07:42:25 51°20.627 3°1.61 17.4274 0.068964 0.35786 -1.801521
2008-04-25 07:42:30 51°20.633 3°1.633 17.4245 0.068964 0.357842 -1.801521
2008-04-25 07:42:35 51°20.639 3°1.656 17.4712 0.068964 0.35786 -1.801521
2008-04-25 07:42:40 51°20.645 3°1.68 17.4478 0.068964 0.35786 -1.801521
2008-04-25 07:42:45 51°20.651 3°1.703 17.4581 0.068964 0.35786 -1.801521
2008-04-25 07:42:50 51°20.657 3°1.726 17.47 0.068964 0.357854 -1.801521
2008-04-25 07:42:55 51°20.662 3°1.749 17.4808 0.068964 0.35786 -1.801521
2008-04-25 07:43:00 51°20.668 3°1.772 17.4704 0.068964 0.357865 -1.801521
2008-04-25 07:43:05 51°20.674 3°1.795 17.4654 0.068964 0.35786 -1.801521
2008-04-25 07:43:10 51°20.68 3°1.818 17.4503 0.068964 0.35786 -1.801521
2008-04-25 07:43:15 51°20.686 3°1.841 17.4397 0.068964 0.35786 -1.801521
2008-04-25 07:43:20 51°20.692 3°1.865 17.4052 0.068964 0.357854 -1.801521
2008-04-25 07:43:25 51°20.698 3°1.888 17.467 0.068964 0.357854 -1.801521
2008-04-25 07:43:30 51°20.703 3°1.912 17.4455 0.068964 0.357854 -1.801521
2008-04-25 07:43:35 51°20.708 3°1.935 17.4459 0.068964 0.357865 -1.801521
2008-04-25 07:43:40 51°20.713 3°1.959 17.4337 0.068964 0.357865 -1.801521
2008-04-25 07:43:45 51°20.717 3°1.983 17.466 0.068964 0.35786 -1.801521
2008-04-25 07:43:50 51°20.722 3°2.007 17.4832 0.068964 0.357865 -1.801521
2008-04-25 07:43:55 51°20.726 3°2.031 17.4726 0.068964 0.357871 -1.801521
2008-04-25 07:44:00 51°20.731 3°2.055 17.4515 0.068964 0.357871 -1.801521
2008-04-25 07:44:05 51°20.735 3°2.079 17.4874 0.068964 0.357865 -1.801521
2008-04-25 07:44:10 51°20.74 3°2.103 17.5069 0.068964 0.357865 -1.801521
2008-04-25 07:44:15 51°20.745 3°2.127 17.4566 0.068964 0.357877 -1.801521
2008-04-25 07:44:20 51°20.75 3°2.15 17.5049 0.068964 0.357871 -1.801521
2008-04-25 07:44:25 51°20.756 3°2.174 17.4481 0.068964 0.357877 -1.801521
2008-04-25 07:44:30 51°20.761 3°2.197 17.5168 0.068964 0.357877 -1.801521
2008-04-25 07:44:35 51°20.767 3°2.22 17.5039 0.068964 0.357877 -1.801521
2008-04-25 07:44:40 51°20.773 3°2.243 17.4882 0.068964 0.357877 -1.801521
2008-04-25 07:44:45 51°20.779 3°2.266 17.4894 0.068964 0.357871 -1.801521
2008-04-25 07:44:50 51°20.785 3°2.289 17.4879 0.068964 0.357871 -1.801521
2008-04-25 07:44:55 51°20.791 3°2.313 17.4916 0.068964 0.357871 -1.801521
2008-04-25 07:45:00 51°20.797 3°2.335 17.4826 0.068964 0.357877 -1.801521
2008-04-25 07:45:05 51°20.803 3°2.359 17.4404 0.068964 0.357871 -1.766697
2008-04-25 07:45:10 51°20.809 3°2.382 17.45 0.068964 0.357871 -1.766697
2008-04-25 07:45:15 51°20.815 3°2.405 17.4267 0.068964 0.357877 -1.801521
2008-04-25 07:45:20 51°20.82 3°2.429 17.503 0.068964 0.357871 -1.801521
2008-04-25 07:45:25 51°20.825 3°2.453 17.4669 0.068964 0.357889 -1.801521
2008-04-25 07:45:30 51°20.83 3°2.476 17.4855 0.068964 0.357877 -1.801521
2008-04-25 07:45:35 51°20.834 3°2.5 17.4655 0.068964 0.357883 -1.801521
2008-04-25 07:45:40 51°20.839 3°2.523 17.5009 0.068964 0.357883 -1.801521
2008-04-25 07:45:45 51°20.843 3°2.547 17.5184 0.068964 0.357883 -1.801521
2008-04-25 07:45:50 51°20.848 3°2.57 17.5085 0.068964 0.357889 -1.801521
2008-04-25 07:45:55 51°20.853 3°2.594 17.5047 0.068964 0.357889 -1.801521
2008-04-25 07:46:00 51°20.858 3°2.617 17.4882 0.068964 0.357889 -1.801521
2008-04-25 07:46:05 51°20.864 3°2.64 17.516 0.068964 0.357883 -1.801521
2008-04-25 07:46:10 51°20.869 3°2.663 17.4927 0.068964 0.357883 -1.801521
2008-04-25 07:46:15 51°20.875 3°2.686 17.4651 0.068964 0.357889 -1.801521
2008-04-25 07:46:20 51°20.881 3°2.709 17.5124 0.068964 0.357877 -1.801521
2008-04-25 07:46:25 51°20.886 3°2.732 17.5144 0.068964 0.357889 -1.801521
2008-04-25 07:46:30 51°20.892 3°2.754 17.5114 0.068964 0.357889 -1.801521
2008-04-25 07:46:35 51°20.898 3°2.777 17.4913 0.068964 0.357889 -1.801521
2008-04-25 07:46:40 51°20.903 3°2.8 17.509 0.068964 0.357889 -1.801521
2008-04-25 07:46:45 51°20.909 3°2.823 17.4658 0.068964 0.357901 -1.801521
2008-04-25 07:46:50 51°20.915 3°2.845 17.4617 0.068964 0.357895 -1.801521
2008-04-25 07:46:55 51°20.92 3°2.868 17.5055 0.068964 0.357895 -1.801521
2008-04-25 07:47:00 51°20.925 3°2.891 17.4315 0.068964 0.357913 -1.801521
2008-04-25 07:47:05 51°20.931 3°2.913 17.5012 0.068964 0.357895 -1.801521
2008-04-25 07:47:10 51°20.936 3°2.936 17.511 0.068964 0.357895 -1.801521
2008-04-25 07:47:15 51°20.941 3°2.958 17.5187 0.068964 0.357895 -1.766697
2008-04-25 07:47:20 51°20.946 3°2.981 17.4935 0.068964 0.357901 -1.801521
2008-04-25 07:47:25 51°20.952 3°3.004 17.4919 0.068964 0.357895 -1.801521
2008-04-25 07:47:30 51°20.956 3°3.027 17.5124 0.068964 0.357895 -1.801521
2008-04-25 07:47:35 51°20.961 3°3.05 17.5284 0.068964 0.357901 -1.801521
2008-04-25 07:47:40 51°20.966 3°3.073 17.501 0.068964 0.357901 -1.801521
2008-04-25 07:47:45 51°20.971 3°3.096 17.5149 0.068964 0.357907 -1.801521
2008-04-25 07:47:50 51°20.976 3°3.119 17.5081 0.068964 0.357907 -1.801521
2008-04-25 07:47:55 51°20.982 3°3.141 17.5013 0.068964 0.357901 -1.801521
2008-04-25 07:48:00 51°20.986 3°3.164 17.4868 0.068964 0.357901 -1.801521
2008-04-25 07:48:05 51°20.991 3°3.187 17.514 0.068964 0.357901 -1.801521
2008-04-25 07:48:10 51°20.996 3°3.21 17.5016 0.068964 0.357901 -1.801521
2008-04-25 07:48:15 51°21.001 3°3.233 17.4726 0.068964 0.357907 -1.801521
2008-04-25 07:48:20 51°21.006 3°3.257 17.4839 0.068964 0.357907 -1.766697
2008-04-25 07:48:25 51°21.01 3°3.28 17.5145 0.068964 0.357907 -1.801521
2008-04-25 07:48:30 51°21.014 3°3.303 17.5118 0.068964 0.357907 -1.801521
2008-04-25 07:48:35 51°21.018 3°3.327 17.5432 0.068964 0.357913 -1.801521
2008-04-25 07:48:40 51°21.022 3°3.351 17.5233 0.068964 0.357913 -1.801521
2008-04-25 07:48:45 51°21.027 3°3.375 17.5131 0.068964 0.357918 -1.801521
2008-04-25 07:48:50 51°21.031 3°3.398 17.5138 0.068964 0.357913 -1.801521
2008-04-25 07:48:55 51°21.036 3°3.422 17.5312 0.068964 0.357918 -1.801521
2008-04-25 07:49:00 51°21.041 3°3.445 17.5227 0.068964 0.357918 -1.801521
2008-04-25 07:49:05 51°21.045 3°3.469 17.4634 0.068964 0.357913 -1.801521
2008-04-25 07:49:10 51°21.05 3°3.492 17.5143 0.068964 0.357913 -1.801521
2008-04-25 07:49:15 51°21.055 3°3.516 17.5139 0.068964 0.357913 -1.801521
2008-04-25 07:49:20 51°21.059 3°3.539 17.5196 0.068964 0.357918 -1.801521
2008-04-25 07:49:25 51°21.064 3°3.563 17.5152 0.068964 0.357924 -1.766697
2008-04-25 07:49:30 51°21.069 3°3.585 17.5431 0.068964 0.357918 -1.766697
2008-04-25 07:49:35 51°21.074 3°3.608 17.5391 0.068964 0.357924 -1.801521
2008-04-25 07:49:40 51°21.08 3°3.63 17.5408 0.068964 0.357924 -1.801521
2008-04-25 07:49:45 51°21.086 3°3.653 17.5056 0.068964 0.35793 -1.801521
2008-04-25 07:49:50 51°21.093 3°3.675 17.5331 0.068964 0.357924 -1.801521
2008-04-25 07:49:55 51°21.099 3°3.697 17.505 0.068964 0.357936 -1.801521
2008-04-25 07:50:00 51°21.106 3°3.718 17.5208 0.068964 0.357924 -1.801521
2008-04-25 07:50:05 51°21.112 3°3.741 17.4984 0.068964 0.357942 -1.801521
2008-04-25 07:50:10 51°21.119 3°3.762 17.5308 0.068964 0.357942 -1.801521
2008-04-25 07:50:15 51°21.126 3°3.784 17.5334 0.068964 0.35793 -1.801521
2008-04-25 07:50:20 51°21.133 3°3.805 17.5149 0.068964 0.357936 -1.801521
2008-04-25 07:50:25 51°21.141 3°3.827 17.5251 0.068964 0.357936 -1.801521
2008-04-25 07:50:30 51°21.148 3°3.848 17.5049 0.068964 0.357936 -1.801521
2008-04-25 07:50:35 51°21.156 3°3.869 17.5347 0.068964 0.357924 -1.766697
2008-04-25 07:50:40 51°21.163 3°3.89 17.5026 0.068964 0.357924 -1.766697
2008-04-25 07:50:45 51°21.171 3°3.911 17.4897 0.068964 0.357936 -1.801521
2008-04-25 07:50:50 51°21.179 3°3.932 17.5128 0.068964 0.35793 -1.801521
2008-04-25 07:50:55 51°21.186 3°3.953 17.5091 0.068964 0.35793 -1.766697
2008-04-25 07:51:00 51°21.193 3°3.975 17.4842 0.068964 0.35793 -1.801521
2008-04-25 07:51:05 51°21.199 3°3.996 17.5189 0.068964 0.35793 -1.801521
2008-04-25 07:51:10 51°21.205 3°4.019 17.5242 0.068964 0.35793 -1.801521
2008-04-25 07:51:15 51°21.211 3°4.041 17.5229 0.068964 0.357936 -1.801521
2008-04-25 07:51:20 51°21.217 3°4.063 17.5534 0.068964 0.357936 -1.801521
2008-04-25 07:51:25 51°21.222 3°4.086 17.5336 0.068964 0.357954 -1.766697
2008-04-25 07:51:30 51°21.229 3°4.108 17.5283 0.068964 0.357948 -1.801521
2008-04-25 07:51:35 51°21.234 3°4.13 17.5343 0.068964 0.357948 -1.801521
2008-04-25 07:51:40 51°21.24 3°4.152 17.5292 0.068964 0.357948 -1.801521
2008-04-25 07:51:45 51°21.246 3°4.174 17.514 0.068964 0.357948 -1.801521
2008-04-25 07:51:50 51°21.252 3°4.197 17.531 0.068964 0.357948 -1.801521
2008-04-25 07:51:55 51°21.258 3°4.219 17.5214 0.068964 0.357948 -1.801521
2008-04-25 07:52:00 51°21.263 3°4.242 17.5314 0.068964 0.357948 -1.801521
2008-04-25 07:52:05 51°21.268 3°4.265 17.528 0.068964 0.357942 -1.801521
2008-04-25 07:52:10 51°21.273 3°4.288 17.5248 0.068964 0.357942 -1.801521
2008-04-25 07:52:15 51°21.279 3°4.31 17.5427 0.068964 0.357948 -1.801521
2008-04-25 07:52:20 51°21.284 3°4.333 17.5503 0.068964 0.357954 -1.801521
2008-04-25 07:52:25 51°21.289 3°4.356 17.5438 0.068964 0.35796 -1.801521
2008-04-25 07:52:30 51°21.294 3°4.379 17.5308 0.068964 0.35796 -1.801521
2008-04-25 07:52:35 51°21.3 3°4.401 17.5504 0.068964 0.35796 -1.801521
2008-04-25 07:52:40 51°21.306 3°4.424 17.5596 0.068964 0.35796 -1.801521
2008-04-25 07:52:45 51°21.312 3°4.446 17.5432 0.068964 0.35796 -1.801521
2008-04-25 07:52:50 51°21.318 3°4.468 17.5593 0.068964 0.357966 -1.801521
2008-04-25 07:52:55 51°21.324 3°4.49 17.5539 0.068964 0.357972 -1.801521
2008-04-25 07:53:00 51°21.33 3°4.512 17.5158 0.068964 0.357966 -1.801521
2008-04-25 07:53:05 51°21.336 3°4.534 17.5526 0.068964 0.357966 -1.801521
2008-04-25 07:53:10 51°21.342 3°4.556 17.5353 0.068964 0.357966 -1.801521
2008-04-25 07:53:15 51°21.348 3°4.578 17.5466 0.068964 0.357966 -1.801521
2008-04-25 07:53:20 51°21.354 3°4.6 17.5405 0.068964 0.357966 -1.801521
2008-04-25 07:53:25 51°21.36 3°4.622 17.5413 0.068964 0.357966 -1.801521
2008-04-25 07:53:30 51°21.366 3°4.644 17.5664 0.068964 0.357966 -1.801521
2008-04-25 07:53:35 51°21.372 3°4.667 17.5352 0.068964 0.357972 -1.801521
2008-04-25 07:53:40 51°21.379 3°4.689 17.5576 0.068964 0.357972 -1.801521
2008-04-25 07:53:45 51°21.384 3°4.711 17.5558 0.068964 0.357972 -1.801521
2008-04-25 07:53:50 51°21.39 3°4.734 17.5204 0.068964 0.357977 -1.801521
2008-04-25 07:53:55 51°21.396 3°4.756 17.5733 0.068964 0.357972 -1.801521
2008-04-25 07:54:00 51°21.401 3°4.779 17.5631 0.068964 0.357983 -1.801521
2008-04-25 07:54:05 51°21.407 3°4.801 17.5056 0.068964 0.357983 -1.801521
2008-04-25 07:54:10 51°21.413 3°4.824 17.5437 0.068964 0.357983 -1.801521
2008-04-25 07:54:15 51°21.418 3°4.847 17.5628 0.068964 0.357977 -1.801521
2008-04-25 07:54:20 51°21.424 3°4.869 17.5606 0.068964 0.357977 -1.766697
2008-04-25 07:54:25 51°21.429 3°4.892 17.5528 0.068964 0.357983 -1.801521
2008-04-25 07:54:30 51°21.435 3°4.914 17.5236 0.068964 0.357972 -1.801521
2008-04-25 07:54:35 51°21.441 3°4.937 17.5101 0.068964 0.357972 -1.801521
2008-04-25 07:54:40 51°21.446 3°4.959 17.5696 0.068964 0.357972 -1.801521
2008-04-25 07:54:45 51°21.451 3°4.983 17.5229 0.068964 0.357983 -1.801521
2008-04-25 07:54:50 51°21.456 3°5.005 17.5829 0.068964 0.357972 -1.801521
2008-04-25 07:54:55 51°21.461 3°5.029 17.5457 0.068964 0.357989 -1.801521
2008-04-25 07:55:00 51°21.466 3°5.051 17.5739 0.068964 0.357989 -1.766697
2008-04-25 07:55:05 51°21.471 3°5.074 17.5652 0.068964 0.357989 -1.801521
2008-04-25 07:55:10 51°21.476 3°5.097 17.5703 0.068964 0.357989 -1.801521
2008-04-25 07:55:15 51°21.481 3°5.12 17.5418 0.068964 0.357995 -1.801521
2008-04-25 07:55:20 51°21.486 3°5.143 17.5591 0.068964 0.357995 -1.801521
2008-04-25 07:55:25 51°21.491 3°5.166 17.5743 0.068964 0.357989 -1.801521
2008-04-25 07:55:30 51°21.496 3°5.189 17.5876 0.068964 0.357989 -1.801521
2008-04-25 07:55:35 51°21.5 3°5.212 17.5718 0.068964 0.357989 -1.801521
2008-04-25 07:55:40 51°21.506 3°5.234 17.5813 0.068964 0.357989 -1.801521
2008-04-25 07:55:45 51°21.511 3°5.257 17.5628 0.068964 0.357995 -1.801521
2008-04-25 07:55:50 51°21.517 3°5.279 17.5646 0.068964 0.357995 -1.801521
2008-04-25 07:55:55 51°21.522 3°5.302 17.5394 0.068964 0.357995 -1.801521
2008-04-25 07:56:00 51°21.528 3°5.324 17.5788 0.068964 0.357989 -1.801521
2008-04-25 07:56:05 51°21.533 3°5.346 17.5508 0.068964 0.357995 -1.766697
2008-04-25 07:56:10 51°21.539 3°5.369 17.5848 0.068964 0.357995 -1.766697
2008-04-25 07:56:15 51°21.543 3°5.391 17.5555 0.068964 0.358001 -1.801521
2008-04-25 07:56:20 51°21.549 3°5.414 17.5631 0.068964 0.358001 -1.801521
2008-04-25 07:56:25 51°21.554 3°5.437 17.58 0.068964 0.358001 -1.801521
2008-04-25 07:56:30 51°21.559 3°5.459 17.5531 0.068964 0.358001 -1.801521
2008-04-25 07:56:35 51°21.564 3°5.482 17.5692 0.068964 0.358001 -1.801521
2008-04-25 07:56:40 51°21.569 3°5.505 17.5111 0.068964 0.358001 -1.801521
2008-04-25 07:56:45 51°21.574 3°5.527 17.5927 0.068964 0.358001 -1.801521
2008-04-25 07:56:50 51°21.579 3°5.55 17.5884 0.068964 0.358007 -1.801521
2008-04-25 07:56:55 51°21.584 3°5.573 17.5917 0.068964 0.358007 -1.801521
2008-04-25 07:57:00 51°21.589 3°5.595 17.5518 0.068964 0.358007 -1.801521
2008-04-25 07:57:05 51°21.594 3°5.618 17.5771 0.068964 0.358007 -1.801521
2008-04-25 07:57:10 51°21.599 3°5.64 17.5838 0.068964 0.358007 -1.801521
2008-04-25 07:57:15 51°21.605 3°5.663 17.5875 0.068964 0.358007 -1.801521
2008-04-25 07:57:20 51°21.61 3°5.685 17.5424 0.068964 0.358013 -1.801521
2008-04-25 07:57:25 51°21.616 3°5.708 17.5764 0.068964 0.358007 -1.801521
2008-04-25 07:57:30 51°21.621 3°5.73 17.5661 0.068964 0.358019 -1.801521
2008-04-25 07:57:35 51°21.627 3°5.752 17.5802 0.068964 0.358019 -1.801521
2008-04-25 07:57:40 51°21.633 3°5.774 17.559 0.068964 0.358019 -1.801521
2008-04-25 07:57:45 51°21.639 3°5.796 17.5514 0.068964 0.358019 -1.801521
2008-04-25 07:57:50 51°21.645 3°5.818 17.5563 0.068964 0.358019 -1.801521
2008-04-25 07:57:55 51°21.651 3°5.84 17.5674 0.068964 0.358013 -1.801521
2008-04-25 07:58:00 51°21.656 3°5.862 17.5616 0.068964 0.358019 -1.801521
2008-04-25 07:58:05 51°21.661 3°5.884 17.5478 0.068964 0.358013 -1.801521
2008-04-25 07:58:10 51°21.666 3°5.907 17.5865 0.068964 0.358013 -1.801521
2008-04-25 07:58:15 51°21.671 3°5.929 17.6121 0.068964 0.358019 -1.801521
2008-04-25 07:58:20 51°21.676 3°5.951 17.6072 0.068964 0.358025 -1.801521
2008-04-25 07:58:25 51°21.682 3°5.973 17.5686 0.068964 0.358025 -1.801521
2008-04-25 07:58:30 51°21.688 3°5.995 17.575 0.068964 0.358025 -1.801521
2008-04-25 07:58:35 51°21.693 3°6.018 17.5919 0.068964 0.358025 -1.801521
2008-04-25 07:58:40 51°21.698 3°6.04 17.5767 0.068964 0.358025 -1.801521
2008-04-25 07:58:45 51°21.703 3°6.062 17.6299 0.068964 0.358019 -1.801521
2008-04-25 07:58:50 51°21.708 3°6.084 17.6123 0.068964 0.35803 -1.766697
2008-04-25 07:58:55 51°21.714 3°6.107 17.5329 0.068964 0.35803 -1.801521
2008-04-25 07:59:00 51°21.719 3°6.129 17.5605 0.068964 0.358025 -1.801521
2008-04-25 07:59:05 51°21.724 3°6.151 17.5856 0.068964 0.35803 -1.801521
2008-04-25 07:59:10 51°21.729 3°6.173 17.5942 0.068964 0.35803 -1.801521
2008-04-25 07:59:15 51°21.735 3°6.196 17.5918 0.068964 0.35803 -1.801521
2008-04-25 07:59:20 51°21.74 3°6.218 17.6086 0.068964 0.35803 -1.801521
2008-04-25 07:59:25 51°21.745 3°6.24 17.6177 0.068964 0.358036 -1.801521
2008-04-25 07:59:30 51°21.751 3°6.262 17.5801 0.068964 0.358036 -1.801521
2008-04-25 07:59:35 51°21.756 3°6.285 17.6001 0.068964 0.358048 -1.801521
2008-04-25 07:59:40 51°21.762 3°6.307 17.5279 0.068964 0.358048 -1.801521
2008-04-25 07:59:45 51°21.769 3°6.329 17.6144 0.068964 0.35803 -1.801521